Observation data for Persimmon Gap on 02/12/2018      Previous  Date  Next       Current Mesonet Observations  Soil Data  Daily Summary Page  Observations in Plain Language
KPG1 120600Z 02019KT 05/M10 A3019 RMK A01 T00471104  RH  033%=      5-min Rain = 0
KPG1 120601Z 02019KT 05/M10 A3019 RMK A01 T00471104  RH  033%=      5-min Rain = 0
KPG1 120602Z 02018KT 05/M10 A3019 RMK A01 T00471104  RH  033%=      5-min Rain = 0
KPG1 120603Z 02020KT 05/M10 A3019 RMK A01 T00471104  RH  033%=      5-min Rain = 0
KPG1 120604Z 02018KT 05/M10 A3019 RMK A01 T00471104  RH  033%=      5-min Rain = 0
KPG1 120605Z 02018KT 05/M10 A3019 RMK A01 T00471104  RH  033%=      5-min Rain = 0
KPG1 120606Z 02019KT 05/M10 A3019 RMK A01 T00461104  RH  033%=      5-min Rain = 0
KPG1 120607Z 02021KT 05/M10 A3019 RMK A01 T00461104  RH  033%=      5-min Rain = 0
KPG1 120608Z 02018KT 05/M10 A3019 RMK A01 T00471104  RH  033%=      5-min Rain = 0
KPG1 120609Z 02019KT 05/M10 A3019 RMK A01 T00471104  RH  033%=      5-min Rain = 0
KPG1 120610Z 02019KT 05/M10 A3019 RMK A01 T00461104  RH  033%=      5-min Rain = 0
KPG1 120611Z 02019KT 05/M10 A302 RMK A01 T00461104  RH  033%=      5-min Rain = 0
KPG1 120612Z 01019KT 05/M10 A302 RMK A01 T00461104  RH  033%=      5-min Rain = 0
KPG1 120613Z 01019KT 05/M10 A3019 RMK A01 T00461104  RH  033%=      5-min Rain = 0
KPG1 120614Z 02019KT 05/M10 A3019 RMK A01 T00461104  RH  033%=      5-min Rain = 0
KPG1 120615Z 02020KT 05/M10 A3019 RMK A01 T00461104  RH  033%=      5-min Rain = 0
KPG1 120616Z 02021KT 05/M10 A3019 RMK A01 T00461104  RH  033%=      5-min Rain = 0
KPG1 120617Z 02019KT 05/M10 A3019 RMK A01 T00461104  RH  033%=      5-min Rain = 0
KPG1 120618Z 02019G24KT 05/M10 A3019 RMK A01 T00461104  RH  033%=      5-min Rain = 0
KPG1 120619Z 02019KT 05/M10 A3019 RMK A01 T00461104  RH  033%=      5-min Rain = 0
KPG1 120620Z 02021KT 05/M11 A3019 RMK A01 T00461105  RH  033%=      5-min Rain = 0
KPG1 120621Z 02020KT 05/M10 A302 RMK A01 T00461104  RH  033%=      5-min Rain = 0
KPG1 120622Z 01018KT 05/M10 A302 RMK A01 T00461104  RH  033%=      5-min Rain = 0
KPG1 120623Z 02017G22KT 05/M11 A302 RMK A01 T00461105  RH  033%=      5-min Rain = 0
KPG1 120624Z 01018KT 05/M10 A302 RMK A01 T00461104  RH  033%=      5-min Rain = 0
KPG1 120625Z 02019KT 05/M10 A3021 RMK A01 T00461104  RH  033%=      5-min Rain = 0
KPG1 120626Z 02018KT 05/M11 A3021 RMK A01 T00461105  RH  033%=      5-min Rain = 0
KPG1 120627Z 01019KT 05/M11 A3021 RMK A01 T00461105  RH  033%=      5-min Rain = 0
KPG1 120628Z 02016KT 05/M11 A3021 RMK A01 T00461105  RH  033%=      5-min Rain = 0
KPG1 120629Z 02017KT 05/M10 A3021 RMK A01 T00461104  RH  033%=      5-min Rain = 0
KPG1 120630Z 02017KT 05/M11 A3021 RMK A01 T00451105  RH  033%=      5-min Rain = 0
KPG1 120631Z 02017KT 05/M10 A302 RMK A01 T00451104  RH  033%=      5-min Rain = 0
KPG1 120632Z 02018KT 05/M10 A302 RMK A01 T00461104  RH  033%=      5-min Rain = 0
KPG1 120633Z 02019KT 05/M10 A302 RMK A01 T00461104  RH  033%=      5-min Rain = 0
KPG1 120634Z 02020KT 05/M10 A302 RMK A01 T00461104  RH  033%=      5-min Rain = 0
KPG1 120635Z 02019KT 05/M10 A3019 RMK A01 T00451104  RH  033%=      5-min Rain = 0
KPG1 120636Z 02020KT 05/M10 A3019 RMK A01 T00451104  RH  033%=      5-min Rain = 0
KPG1 120637Z 02018G23KT 05/M10 A3019 RMK A01 T00451104  RH  033%=      5-min Rain = 0
KPG1 120638Z 02018KT 05/M10 A3019 RMK A01 T00451104  RH  033%=      5-min Rain = 0
KPG1 120639Z 02019KT 05/M10 A3019 RMK A01 T00451104  RH  033%=      5-min Rain = 0
KPG1 120640Z 02018KT 05/M10 A3019 RMK A01 T00451103  RH  033%=      5-min Rain = 0
KPG1 120641Z 02020G25KT 05/M10 A3019 RMK A01 T00451103  RH  033%=      5-min Rain = 0
KPG1 120642Z 02023KT 05/M10 A3019 RMK A01 T00451103  RH  033%=      5-min Rain = 0
KPG1 120643Z 02022KT 05/M10 A3018 RMK A01 T00451104  RH  033%=      5-min Rain = 0
KPG1 120644Z 02022KT 05/M10 A3018 RMK A01 T00451104  RH  033%=      5-min Rain = 0
KPG1 120645Z 02022KT 04/M10 A3018 RMK A01 T00441104  RH  033%=      5-min Rain = 0
KPG1 120646Z 02021KT 05/M10 A3019 RMK A01 T00451104  RH  033%=      5-min Rain = 0
KPG1 120647Z 02022KT 04/M10 A3019 RMK A01 T00441104  RH  033%=      5-min Rain = 0
KPG1 120648Z 02022KT 04/M10 A3019 RMK A01 T00441104  RH  033%=      5-min Rain = 0
KPG1 120649Z 02021KT 04/M10 A3019 RMK A01 T00441104  RH  033%=      5-min Rain = 0
KPG1 120650Z 02021G26KT 04/M10 A3019 RMK A01 T00441104  RH  033%=      5-min Rain = 0
KPG1 120651Z 02022KT 04/M10 A3019 RMK A01 T00441104  RH  033%=      5-min Rain = 0
KPG1 120652Z 02023KT 04/M11 A3019 RMK A01 T00441105  RH  033%=      5-min Rain = 0
KPG1 120653Z 02020G25KT 04/M10 A3019 RMK A01 T00441104  RH  033%=      5-min Rain = 0
KPG1 120654Z 02021KT 04/M10 A3019 RMK A01 T00441104  RH  033%=      5-min Rain = 0
KPG1 120655Z 02022KT 04/M11 A3019 RMK A01 T00441105  RH  033%=      5-min Rain = 0
KPG1 120656Z 02019KT 04/M11 A3019 RMK A01 T00441105  RH  033%=      5-min Rain = 0
KPG1 120657Z 02020KT 04/M11 A302 RMK A01 T00441105  RH  033%=      5-min Rain = 0
KPG1 120658Z 02020KT 04/M11 A302 RMK A01 T00441105  RH  033%=      5-min Rain = 0
KPG1 120659Z 02019KT 04/M11 A302 RMK A01 T00441105  RH  033%=      5-min Rain = 0
KPG1 120700Z 02020KT 04/M11 A302 RMK A01 T00441105  RH  033%=      5-min Rain = 0
KPG1 120701Z 02020KT 04/M11 A302 RMK A01 T00441105  RH  033%=      5-min Rain = 0
KPG1 120702Z 02019KT 04/M11 A302 RMK A01 T00441106  RH  033%=      5-min Rain = 0
KPG1 120703Z 02020KT 04/M11 A302 RMK A01 T00441105  RH  033%=      5-min Rain = 0
KPG1 120704Z 02021KT 04/M11 A302 RMK A01 T00441106  RH  033%=      5-min Rain = 0
KPG1 120705Z 02019G24KT 04/M11 A302 RMK A01 T00441106  RH  033%=      5-min Rain = 0
KPG1 120706Z 02021KT 04/M11 A302 RMK A01 T00441106  RH  033%=      5-min Rain = 0
KPG1 120707Z 02022KT 04/M11 A302 RMK A01 T00441107  RH  032%=      5-min Rain = 0
KPG1 120708Z 02020KT 04/M11 A3019 RMK A01 T00441106  RH  032%=      5-min Rain = 0
KPG1 120709Z 02019KT 04/M11 A3019 RMK A01 T00441107  RH  032%=      5-min Rain = 0
KPG1 120710Z 02021G26KT 04/M11 A3019 RMK A01 T00441106  RH  033%=      5-min Rain = 0
KPG1 120711Z 02020KT 05/M11 A3019 RMK A01 T00451106  RH  032%=      5-min Rain = 0
KPG1 120712Z 02023KT 04/M11 A3019 RMK A01 T00441107  RH  032%=      5-min Rain = 0
KPG1 120713Z 02022KT 04/M11 A3019 RMK A01 T00441107  RH  032%=      5-min Rain = 0
KPG1 120714Z 02023KT 04/M11 A3019 RMK A01 T00441107  RH  032%=      5-min Rain = 0
KPG1 120715Z 02022KT 04/M11 A3019 RMK A01 T00441107  RH  032%=      5-min Rain = 0
KPG1 120716Z 02020KT 04/M11 A3019 RMK A01 T00441108  RH  032%=      5-min Rain = 0
KPG1 120717Z 02021KT 04/M11 A3019 RMK A01 T00441107  RH  032%=      5-min Rain = 0
KPG1 120718Z 02020G25KT 04/M11 A3019 RMK A01 T00441108  RH  032%=      5-min Rain = 0
KPG1 120719Z 03020G25KT 04/M11 A302 RMK A01 T00441107  RH  032%=      5-min Rain = 0
KPG1 120720Z 02018KT 04/M11 A302 RMK A01 T00441108  RH  032%=      5-min Rain = 0
KPG1 120721Z 02019KT 04/M11 A302 RMK A01 T00441108  RH  032%=      5-min Rain = 0
KPG1 120722Z 02021KT 04/M11 A302 RMK A01 T00441108  RH  032%=      5-min Rain = 0
KPG1 120723Z 02020KT 04/M11 A302 RMK A01 T00441108  RH  032%=      5-min Rain = 0
KPG1 120724Z 03020KT 04/M11 A302 RMK A01 T00441108  RH  032%=      5-min Rain = 0
KPG1 120725Z 03018KT 05/M11 A3019 RMK A01 T00451108  RH  032%=      5-min Rain = 0
KPG1 120726Z 03017KT 04/M11 A3019 RMK A01 T00441109  RH  032%=      5-min Rain = 0
KPG1 120727Z 03017KT 04/M11 A3019 RMK A01 T00441109  RH  032%=      5-min Rain = 0
KPG1 120728Z 03017KT 04/M11 A3019 RMK A01 T00441109  RH  032%=      5-min Rain = 0
KPG1 120729Z 03018KT 04/M11 A3019 RMK A01 T00441108  RH  032%=      5-min Rain = 0
KPG1 120730Z 03019KT 04/M11 A3019 RMK A01 T00441109  RH  032%=      5-min Rain = 0
KPG1 120731Z 03018KT 04/M11 A3019 RMK A01 T00441109  RH  032%=      5-min Rain = 0
KPG1 120732Z 03019KT 04/M11 A3019 RMK A01 T00441109  RH  032%=      5-min Rain = 0
KPG1 120733Z 03017KT 04/M11 A3019 RMK A01 T00441109  RH  032%=      5-min Rain = 0
KPG1 120734Z 03017KT 04/M11 A3019 RMK A01 T00441109  RH  032%=      5-min Rain = 0
KPG1 120735Z 03018KT 04/M11 A3018 RMK A01 T00441109  RH  032%=      5-min Rain = 0
KPG1 120736Z 03019KT 04/M11 A3018 RMK A01 T00441109  RH  032%=      5-min Rain = 0
KPG1 120737Z 03021KT 04/M11 A3018 RMK A01 T00441109  RH  032%=      5-min Rain = 0
KPG1 120738Z 03019KT 04/M11 A3018 RMK A01 T00441109  RH  032%=      5-min Rain = 0
KPG1 120739Z 03020KT 04/M11 A3018 RMK A01 T00441109  RH  032%=      5-min Rain = 0
KPG1 120740Z 03019KT 04/M11 A3018 RMK A01 T00441109  RH  032%=      5-min Rain = 0
KPG1 120741Z 03019KT 04/M11 A3018 RMK A01 T00441109  RH  032%=      5-min Rain = 0
KPG1 120742Z 03018KT 04/M11 A3019 RMK A01 T00441109  RH  032%=      5-min Rain = 0
KPG1 120743Z 03019KT 04/M11 A3019 RMK A01 T00441109  RH  032%=      5-min Rain = 0
KPG1 120744Z 03017KT 04/M11 A3019 RMK A01 T00441109  RH  032%=      5-min Rain = 0
KPG1 120745Z 03019KT 04/M11 A3019 RMK A01 T00441109  RH  032%=      5-min Rain = 0
KPG1 120746Z 02020KT 04/M11 A3019 RMK A01 T00431110  RH  032%=      5-min Rain = 0
KPG1 120747Z 02022KT 04/M11 A3019 RMK A01 T00431110  RH  032%=      5-min Rain = 0
KPG1 120748Z 02022KT 04/M11 A3019 RMK A01 T00431110  RH  032%=      5-min Rain = 0
KPG1 120749Z 03023KT 04/M11 A3019 RMK A01 T00431110  RH  032%=      5-min Rain = 0
KPG1 120750Z 03020KT 04/M11 A3019 RMK A01 T00431110  RH  032%=      5-min Rain = 0
KPG1 120751Z 02020KT 04/M11 A3019 RMK A01 T00431110  RH  032%=      5-min Rain = 0
KPG1 120752Z 03021KT 04/M11 A3019 RMK A01 T00431110  RH  032%=      5-min Rain = 0
KPG1 120753Z 03021KT 04/M11 A3019 RMK A01 T00431110  RH  032%=      5-min Rain = 0
KPG1 120754Z 02022KT 04/M11 A3019 RMK A01 T00431110  RH  032%=      5-min Rain = 0
KPG1 120755Z 02020KT 04/M11 A3019 RMK A01 T00431110  RH  032%=      5-min Rain = 0
KPG1 120756Z 03019KT 04/M11 A3019 RMK A01 T00431110  RH  032%=      5-min Rain = 0
KPG1 120757Z 02022KT 04/M11 A3019 RMK A01 T00431110  RH  032%=      5-min Rain = 0
KPG1 120758Z 02021KT 04/M11 A3019 RMK A01 T00431110  RH  032%=      5-min Rain = 0
KPG1 120759Z 02021KT 04/M11 A3019 RMK A01 T00441109  RH  032%=      5-min Rain = 0
KPG1 120800Z 02022KT 04/M11 A3019 RMK A01 T00441110  RH  032%=      5-min Rain = 0
KPG1 120801Z 02021KT 04/M11 A3019 RMK A01 T00431110  RH  032%=      5-min Rain = 0
KPG1 120802Z 02019KT 04/M11 A3019 RMK A01 T00431110  RH  032%=      5-min Rain = 0
KPG1 120803Z 03020KT 04/M11 A3019 RMK A01 T00431110  RH  032%=      5-min Rain = 0
KPG1 120804Z 02020KT 04/M11 A3019 RMK A01 T00431110  RH  032%=      5-min Rain = 0
KPG1 120805Z 02020KT 04/M11 A3019 RMK A01 T00431110  RH  032%=      5-min Rain = 0
KPG1 120806Z 02017G22KT 04/M11 A3019 RMK A01 T00431110  RH  032%=      5-min Rain = 0
KPG1 120807Z 02018KT 04/M11 A3019 RMK A01 T00431110  RH  032%=      5-min Rain = 0
KPG1 120808Z 02019KT 04/M11 A3019 RMK A01 T00431110  RH  032%=      5-min Rain = 0
KPG1 120809Z 02020KT 04/M11 A3019 RMK A01 T00431110  RH  032%=      5-min Rain = 0
KPG1 120810Z 02019KT 04/M11 A3019 RMK A01 T00431110  RH  032%=      5-min Rain = 0
KPG1 120811Z 03018KT 04/M11 A3019 RMK A01 T00421110  RH  032%=      5-min Rain = 0
KPG1 120812Z 02018KT 04/M11 A302 RMK A01 T00421110  RH  032%=      5-min Rain = 0
KPG1 120813Z 02019KT 04/M11 A302 RMK A01 T00431110  RH  032%=      5-min Rain = 0
KPG1 120814Z 03019KT 04/M11 A302 RMK A01 T00431110  RH  032%=      5-min Rain = 0
KPG1 120815Z 02018KT 04/M11 A302 RMK A01 T00431109  RH  032%=      5-min Rain = 0
KPG1 120816Z 02018KT 04/M11 A302 RMK A01 T00421110  RH  032%=      5-min Rain = 0
KPG1 120817Z 03016KT 04/M11 A302 RMK A01 T00421110  RH  032%=      5-min Rain = 0
KPG1 120818Z 02017KT 04/M11 A302 RMK A01 T00421110  RH  032%=      5-min Rain = 0
KPG1 120819Z 02019KT 04/M11 A302 RMK A01 T00421110  RH  032%=      5-min Rain = 0
KPG1 120820Z 02019KT 04/M11 A302 RMK A01 T00411110  RH  032%=      5-min Rain = 0
KPG1 120821Z 03019KT 04/M11 A302 RMK A01 T00411110  RH  032%=      5-min Rain = 0
KPG1 120822Z 02017KT 04/M11 A3019 RMK A01 T00421110  RH  032%=      5-min Rain = 0
KPG1 120823Z 02019KT 04/M11 A3019 RMK A01 T00411110  RH  032%=      5-min Rain = 0
KPG1 120824Z 02019KT 04/M11 A3019 RMK A01 T00411109  RH  032%=      5-min Rain = 0
KPG1 120825Z 02019KT 04/M11 A3019 RMK A01 T00421109  RH  032%=      5-min Rain = 0
KPG1 120826Z 03016G21KT 04/M11 A3019 RMK A01 T00421109  RH  032%=      5-min Rain = 0
KPG1 120827Z 03016KT 04/M11 A3019 RMK A01 T00411109  RH  033%=      5-min Rain = 0
KPG1 120828Z 03018KT 04/M11 A3019 RMK A01 T00411109  RH  033%=      5-min Rain = 0
KPG1 120829Z 02017KT 04/M11 A3019 RMK A01 T00411109  RH  033%=      5-min Rain = 0
KPG1 120830Z 02017KT 04/M11 A3019 RMK A01 T00411109  RH  033%=      5-min Rain = 0
KPG1 120831Z 02019KT 04/M11 A3019 RMK A01 T00411109  RH  033%=      5-min Rain = 0
KPG1 120832Z 03019KT 04/M11 A3019 RMK A01 T00411109  RH  033%=      5-min Rain = 0
KPG1 120833Z 02020KT 04/M11 A3019 RMK A01 T00411108  RH  033%=      5-min Rain = 0
KPG1 120834Z 03017KT 04/M11 A3019 RMK A01 T00401109  RH  033%=      5-min Rain = 0
KPG1 120835Z 02014KT 04/M11 A3019 RMK A01 T00401109  RH  033%=      5-min Rain = 0
KPG1 120836Z 02016G21KT 04/M11 A3019 RMK A01 T00401109  RH  033%=      5-min Rain = 0
KPG1 120837Z 02016KT 04/M11 A3019 RMK A01 T00401109  RH  033%=      5-min Rain = 0
KPG1 120838Z 02017KT 04/M11 A3019 RMK A01 T00401108  RH  033%=      5-min Rain = 0
KPG1 120839Z 02017KT 04/M11 A3019 RMK A01 T00401108  RH  033%=      5-min Rain = 0
KPG1 120840Z 03016KT 04/M11 A3019 RMK A01 T00391108  RH  033%=      5-min Rain = 0
KPG1 120841Z 02016KT 04/M11 A3019 RMK A01 T00391108  RH  033%=      5-min Rain = 0
KPG1 120842Z 03015KT 04/M11 A3019 RMK A01 T00391108  RH  033%=      5-min Rain = 0
KPG1 120843Z 02014KT 04/M11 A3019 RMK A01 T00391108  RH  033%=      5-min Rain = 0
KPG1 120844Z 02016KT 04/M11 A3019 RMK A01 T00381108  RH  033%=      5-min Rain = 0
KPG1 120845Z 02018KT 04/M11 A3019 RMK A01 T00381108  RH  034%=      5-min Rain = 0
KPG1 120846Z 02018KT 04/M11 A3019 RMK A01 T00381107  RH  034%=      5-min Rain = 0
KPG1 120847Z 02019KT 04/M11 A3019 RMK A01 T00381108  RH  034%=      5-min Rain = 0
KPG1 120848Z 02018KT 04/M11 A3019 RMK A01 T00381108  RH  034%=      5-min Rain = 0
KPG1 120849Z 02017KT 04/M11 A3019 RMK A01 T00381107  RH  034%=      5-min Rain = 0
KPG1 120850Z 02017KT 04/M11 A302 RMK A01 T00381107  RH  034%=      5-min Rain = 0
KPG1 120851Z 02017KT 04/M11 A302 RMK A01 T00381107  RH  034%=      5-min Rain = 0
KPG1 120852Z 03016KT 04/M11 A302 RMK A01 T00381107  RH  034%=      5-min Rain = 0
KPG1 120853Z 02017KT 04/M11 A302 RMK A01 T00381107  RH  034%=      5-min Rain = 0
KPG1 120854Z 02017KT 04/M11 A302 RMK A01 T00381107  RH  034%=      5-min Rain = 0
KPG1 120855Z 02017KT 04/M11 A302 RMK A01 T00381107  RH  034%=      5-min Rain = 0
KPG1 120856Z 02017KT 04/M11 A302 RMK A01 T00371107  RH  034%=      5-min Rain = 0
KPG1 120857Z 02015KT 04/M11 A302 RMK A01 T00371107  RH  034%=      5-min Rain = 0
KPG1 120858Z 02015KT 04/M11 A302 RMK A01 T00371107  RH  034%=      5-min Rain = 0
KPG1 120859Z 02017KT 04/M11 A3019 RMK A01 T00361107  RH  034%=      5-min Rain = 0
KPG1 120900Z 02017KT 04/M11 A3019 RMK A01 T00361107  RH  034%=      5-min Rain = 0
KPG1 120901Z 02019KT 04/M11 A3019 RMK A01 T00361107  RH  034%=      5-min Rain = 0
KPG1 120902Z 02017KT 04/M11 A3019 RMK A01 T00371106  RH  034%=      5-min Rain = 0
KPG1 120903Z 02017KT 04/M11 A3019 RMK A01 T00371106  RH  034%=      5-min Rain = 0
KPG1 120904Z 02017KT 04/M11 A3019 RMK A01 T00371106  RH  034%=      5-min Rain = 0
KPG1 120905Z 02017KT 04/M11 A3019 RMK A01 T00361106  RH  034%=      5-min Rain = 0
KPG1 120906Z 02018KT 04/M11 A3019 RMK A01 T00361106  RH  035%=      5-min Rain = 0
KPG1 120907Z 02017KT 04/M11 A3019 RMK A01 T00361106  RH  035%=      5-min Rain = 0
KPG1 120908Z 02016KT 04/M11 A3019 RMK A01 T00361106  RH  035%=      5-min Rain = 0
KPG1 120909Z 02016KT 04/M11 A3019 RMK A01 T00361106  RH  035%=      5-min Rain = 0
KPG1 120910Z 02016KT 04/M11 A3019 RMK A01 T00351106  RH  035%=      5-min Rain = 0
KPG1 120911Z 02018KT 04/M11 A3019 RMK A01 T00351106  RH  035%=      5-min Rain = 0
KPG1 120912Z 02014G19KT 04/M11 A3019 RMK A01 T00351106  RH  035%=      5-min Rain = 0
KPG1 120913Z 02018KT 04/M11 A3019 RMK A01 T00351106  RH  035%=      5-min Rain = 0
KPG1 120914Z 02017KT 04/M11 A3019 RMK A01 T00351106  RH  035%=      5-min Rain = 0
KPG1 120915Z 02017KT 03/M11 A3019 RMK A01 T00341106  RH  035%=      5-min Rain = 0
KPG1 120916Z 02016KT 03/M11 A3019 RMK A01 T00341106  RH  035%=      5-min Rain = 0
KPG1 120917Z 03015KT 03/M11 A3019 RMK A01 T00341106  RH  035%=      5-min Rain = 0
KPG1 120918Z 02016KT 03/M11 A3019 RMK A01 T00331106  RH  035%=      5-min Rain = 0
KPG1 120919Z 02016KT 03/M11 A3019 RMK A01 T00331106  RH  035%=      5-min Rain = 0
KPG1 120920Z 02017KT 03/M11 A3019 RMK A01 T00331106  RH  035%=      5-min Rain = 0
KPG1 120921Z 02017KT 03/M11 A3019 RMK A01 T00331106  RH  035%=      5-min Rain = 0
KPG1 120922Z 02017KT 03/M11 A3019 RMK A01 T00331106  RH  035%=      5-min Rain = 0
KPG1 120923Z 02016KT 03/M11 A3019 RMK A01 T00331105  RH  035%=      5-min Rain = 0
KPG1 120924Z 02016KT 03/M11 A3019 RMK A01 T00331106  RH  035%=      5-min Rain = 0
KPG1 120925Z 02015KT 03/M11 A3019 RMK A01 T00331106  RH  035%=      5-min Rain = 0
KPG1 120926Z 03014KT 03/M11 A3019 RMK A01 T00321106  RH  036%=      5-min Rain = 0
KPG1 120927Z 02013KT 03/M11 A3019 RMK A01 T00321106  RH  036%=      5-min Rain = 0
KPG1 120928Z 02015KT 03/M11 A3019 RMK A01 T00311106  RH  036%=      5-min Rain = 0
KPG1 120929Z 02015G20KT 03/M11 A3019 RMK A01 T00311105  RH  036%=      5-min Rain = 0
KPG1 120930Z 02018KT 03/M11 A3019 RMK A01 T00321105  RH  036%=      5-min Rain = 0
KPG1 120931Z 02018KT 03/M11 A3019 RMK A01 T00331105  RH  036%=      5-min Rain = 0
KPG1 120932Z 02018KT 03/M11 A3019 RMK A01 T00321105  RH  036%=      5-min Rain = 0
KPG1 120933Z 02017KT 03/M11 A3019 RMK A01 T00331105  RH  036%=      5-min Rain = 0
KPG1 120934Z 02017KT 03/M11 A3019 RMK A01 T00321105  RH  036%=      5-min Rain = 0
KPG1 120935Z 02017KT 03/M11 A3019 RMK A01 T00321105  RH  036%=      5-min Rain = 0
KPG1 120936Z 02017KT 03/M11 A3019 RMK A01 T00321105  RH  036%=      5-min Rain = 0
KPG1 120937Z 02018KT 03/M11 A3019 RMK A01 T00321105  RH  036%=      5-min Rain = 0
KPG1 120938Z 02018KT 03/M11 A3019 RMK A01 T00321105  RH  036%=      5-min Rain = 0
KPG1 120939Z 02018KT 03/M11 A3019 RMK A01 T00321105  RH  036%=      5-min Rain = 0
KPG1 120940Z 01015KT 03/M11 A3019 RMK A01 T00321105  RH  036%=      5-min Rain = 0
KPG1 120941Z 02018KT 03/M11 A3019 RMK A01 T00321105  RH  036%=      5-min Rain = 0
KPG1 120942Z 02016KT 03/M11 A3019 RMK A01 T00321105  RH  036%=      5-min Rain = 0
KPG1 120943Z 02018KT 03/M11 A3019 RMK A01 T00311105  RH  036%=      5-min Rain = 0
KPG1 120944Z 02017KT 03/M11 A3019 RMK A01 T00311105  RH  036%=      5-min Rain = 0
KPG1 120945Z 02018KT 03/M10 A3019 RMK A01 T00311104  RH  036%=      5-min Rain = 0
KPG1 120946Z 02017KT 03/M11 A3019 RMK A01 T00311105  RH  036%=      5-min Rain = 0
KPG1 120947Z 02016KT 03/M11 A3019 RMK A01 T00301105  RH  036%=      5-min Rain = 0
KPG1 120948Z 02016KT 03/M11 A3019 RMK A01 T00301105  RH  036%=      5-min Rain = 0
KPG1 120949Z 02017KT 03/M10 A3019 RMK A01 T00301104  RH  037%=      5-min Rain = 0
KPG1 120950Z 02016G21KT 03/M11 A3019 RMK A01 T00301105  RH  037%=      5-min Rain = 0
KPG1 120951Z 02014KT 03/M10 A3019 RMK A01 T00301104  RH  037%=      5-min Rain = 0
KPG1 120952Z 02015KT 03/M10 A3019 RMK A01 T00301104  RH  037%=      5-min Rain = 0
KPG1 120953Z 01016KT 03/M10 A3019 RMK A01 T00291104  RH  037%=      5-min Rain = 0
KPG1 120954Z 01017KT 03/M10 A3019 RMK A01 T00291104  RH  037%=      5-min Rain = 0
KPG1 120955Z 01016KT 03/M10 A3019 RMK A01 T00291104  RH  037%=      5-min Rain = 0
KPG1 120956Z 01017KT 03/M10 A3019 RMK A01 T00291104  RH  037%=      5-min Rain = 0
KPG1 120957Z 01015KT 03/M10 A3019 RMK A01 T00291104  RH  037%=      5-min Rain = 0
KPG1 120958Z 01015G20KT 03/M10 A3019 RMK A01 T00291104  RH  037%=      5-min Rain = 0
KPG1 120959Z 01015KT 03/M10 A3019 RMK A01 T00281104  RH  037%=      5-min Rain = 0
KPG1 121000Z 01016KT 03/M10 A3019 RMK A01 T00291103  RH  037%=      5-min Rain = 0
KPG1 121001Z 01014KT 03/M10 A3019 RMK A01 T00281103  RH  037%=      5-min Rain = 0
KPG1 121002Z 02017KT 03/M10 A3019 RMK A01 T00281104  RH  037%=      5-min Rain = 0
KPG1 121003Z 02017KT 03/M10 A3019 RMK A01 T00281104  RH  037%=      5-min Rain = 0
KPG1 121004Z 01016G21KT 03/M10 A3019 RMK A01 T00281103  RH  037%=      5-min Rain = 0
KPG1 121005Z 02019KT 03/M10 A3019 RMK A01 T00281103  RH  037%=      5-min Rain = 0
KPG1 121006Z 02017KT 03/M10 A3019 RMK A01 T00271104  RH  037%=      5-min Rain = 0
KPG1 121007Z 02017KT 03/M10 A3019 RMK A01 T00271104  RH  037%=      5-min Rain = 0
KPG1 121008Z 02016KT 03/M10 A3019 RMK A01 T00271104  RH  038%=      5-min Rain = 0
KPG1 121009Z 02016KT 03/M10 A3019 RMK A01 T00271103  RH  038%=      5-min Rain = 0
KPG1 121010Z 02019KT 03/M10 A302 RMK A01 T00271103  RH  038%=      5-min Rain = 0
KPG1 121011Z 02017KT 03/M10 A302 RMK A01 T00271103  RH  038%=      5-min Rain = 0
KPG1 121012Z 02017KT 03/M10 A3019 RMK A01 T00271104  RH  038%=      5-min Rain = 0
KPG1 121013Z 02018KT 03/M10 A3019 RMK A01 T00261104  RH  038%=      5-min Rain = 0
KPG1 121014Z 02017KT 03/M10 A3019 RMK A01 T00261104  RH  038%=      5-min Rain = 0
KPG1 121015Z 02017KT 03/M10 A3019 RMK A01 T00261103  RH  038%=      5-min Rain = 0
KPG1 121016Z 02018KT 03/M10 A302 RMK A01 T00261103  RH  038%=      5-min Rain = 0
KPG1 121017Z 02015KT 03/M10 A302 RMK A01 T00261103  RH  038%=      5-min Rain = 0
KPG1 121018Z 02014KT 03/M10 A302 RMK A01 T00261103  RH  038%=      5-min Rain = 0
KPG1 121019Z 02018KT 03/M10 A3019 RMK A01 T00261103  RH  038%=      5-min Rain = 0
KPG1 121020Z 02019KT 03/M10 A3019 RMK A01 T00251103  RH  038%=      5-min Rain = 0
KPG1 121021Z 02018KT 03/M10 A3019 RMK A01 T00251103  RH  038%=      5-min Rain = 0
KPG1 121022Z 02018KT 03/M10 A3019 RMK A01 T00251104  RH  038%=      5-min Rain = 0
KPG1 121023Z 02018KT 03/M10 A3019 RMK A01 T00251104  RH  038%=      5-min Rain = 0
KPG1 121024Z 02018KT 03/M10 A302 RMK A01 T00251104  RH  038%=      5-min Rain = 0
KPG1 121025Z 02017KT 03/M10 A3019 RMK A01 T00251103  RH  038%=      5-min Rain = 0
KPG1 121026Z 02017G22KT 02/M10 A302 RMK A01 T00241104  RH  038%=      5-min Rain = 0
KPG1 121027Z 02017KT 03/M10 A302 RMK A01 T00251103  RH  038%=      5-min Rain = 0
KPG1 121028Z 02017KT 03/M10 A302 RMK A01 T00251104  RH  038%=      5-min Rain = 0
KPG1 121029Z 02018KT 02/M10 A3019 RMK A01 T00241104  RH  038%=      5-min Rain = 0
KPG1 121030Z 02017KT 03/M10 A3019 RMK A01 T00251104  RH  038%=      5-min Rain = 0
KPG1 121031Z 02016KT 03/M10 A3019 RMK A01 T00251103  RH  038%=      5-min Rain = 0
KPG1 121032Z 02018KT 03/M10 A3019 RMK A01 T00251104  RH  038%=      5-min Rain = 0
KPG1 121033Z 02015KT 03/M10 A3019 RMK A01 T00251104  RH  038%=      5-min Rain = 0
KPG1 121034Z 02016KT 02/M10 A3019 RMK A01 T00241104  RH  038%=      5-min Rain = 0
KPG1 121035Z 01016KT 02/M10 A3019 RMK A01 T00241104  RH  038%=      5-min Rain = 0
KPG1 121036Z 02017KT 02/M10 A3019 RMK A01 T00241104  RH  038%=      5-min Rain = 0
KPG1 121037Z 02015KT 02/M10 A302 RMK A01 T00241104  RH  038%=      5-min Rain = 0
KPG1 121038Z 02016KT 02/M10 A302 RMK A01 T00241104  RH  038%=      5-min Rain = 0
KPG1 121039Z 02013KT 02/M10 A302 RMK A01 T00241104  RH  038%=      5-min Rain = 0
KPG1 121040Z 01014KT 02/M10 A302 RMK A01 T00241104  RH  038%=      5-min Rain = 0
KPG1 121041Z 02017KT 02/M10 A302 RMK A01 T00241104  RH  038%=      5-min Rain = 0
KPG1 121042Z 02014KT 02/M10 A302 RMK A01 T00241104  RH  038%=      5-min Rain = 0
KPG1 121043Z 02014KT 02/M10 A302 RMK A01 T00241104  RH  038%=      5-min Rain = 0
KPG1 121044Z 02014KT 02/M10 A302 RMK A01 T00241104  RH  038%=      5-min Rain = 0
KPG1 121045Z 01014KT 02/M10 A302 RMK A01 T00231104  RH  038%=      5-min Rain = 0
KPG1 121046Z 02014KT 02/M10 A302 RMK A01 T00241104  RH  038%=      5-min Rain = 0
KPG1 121047Z 01013KT 02/M10 A302 RMK A01 T00231104  RH  038%=      5-min Rain = 0
KPG1 121048Z 01013KT 02/M10 A302 RMK A01 T00231104  RH  039%=      5-min Rain = 0
KPG1 121049Z 02015KT 02/M10 A302 RMK A01 T00231104  RH  039%=      5-min Rain = 0
KPG1 121050Z 01013G18KT 02/M10 A302 RMK A01 T00231103  RH  039%=      5-min Rain = 0
KPG1 121051Z 02013KT 02/M10 A302 RMK A01 T00231103  RH  039%=      5-min Rain = 0
KPG1 121052Z 02015KT 02/M10 A302 RMK A01 T00231103  RH  039%=      5-min Rain = 0
KPG1 121053Z 02016KT 02/M10 A302 RMK A01 T00231103  RH  039%=      5-min Rain = 0
KPG1 121054Z 02017KT 02/M10 A302 RMK A01 T00231103  RH  039%=      5-min Rain = 0
KPG1 121055Z 02016KT 02/M10 A302 RMK A01 T00231102  RH  039%=      5-min Rain = 0
KPG1 121056Z 02016KT 02/M10 A302 RMK A01 T00231102  RH  039%=      5-min Rain = 0
KPG1 121057Z 02013KT 02/M10 A302 RMK A01 T00231103  RH  039%=      5-min Rain = 0
KPG1 121058Z 02013KT 02/M10 A302 RMK A01 T00231103  RH  039%=      5-min Rain = 0
KPG1 121059Z 01014KT 02/M10 A302 RMK A01 T00231103  RH  039%=      5-min Rain = 0
KPG1 121100Z 02015KT 02/M10 A302 RMK A01 T00231102  RH  039%=      5-min Rain = 0
KPG1 121101Z 02014KT 02/M10 A302 RMK A01 T00231103  RH  039%=      5-min Rain = 0
KPG1 121102Z 02017KT 02/M10 A302 RMK A01 T00231102  RH  039%=      5-min Rain = 0
KPG1 121103Z 02015G20KT 02/M10 A302 RMK A01 T00231102  RH  039%=      5-min Rain = 0
KPG1 121104Z 02016KT 02/M10 A302 RMK A01 T00231101  RH  039%=      5-min Rain = 0
KPG1 121105Z 02016KT 02/M10 A302 RMK A01 T00231101  RH  039%=      5-min Rain = 0
KPG1 121106Z 02016KT 02/M10 A302 RMK A01 T00231101  RH  039%=      5-min Rain = 0
KPG1 121107Z 02016KT 02/M10 A302 RMK A01 T00231101  RH  039%=      5-min Rain = 0
KPG1 121108Z 02016KT 02/M10 A302 RMK A01 T00231101  RH  040%=      5-min Rain = 0
KPG1 121109Z 02017KT 02/M10 A302 RMK A01 T00221101  RH  040%=      5-min Rain = 0
KPG1 121110Z 02017KT 02/M10 A302 RMK A01 T00231100  RH  040%=      5-min Rain = 0
KPG1 121111Z 02017KT 02/M10 A302 RMK A01 T00231100  RH  040%=      5-min Rain = 0
KPG1 121112Z 02017KT 02/M10 A302 RMK A01 T00221100  RH  040%=      5-min Rain = 0
KPG1 121113Z 02017KT 02/M10 A302 RMK A01 T00231100  RH  040%=      5-min Rain = 0
KPG1 121114Z 02017KT 02/M10 A302 RMK A01 T00221101  RH  040%=      5-min Rain = 0
KPG1 121115Z 02015KT 02/M10 A302 RMK A01 T00231100  RH  040%=      5-min Rain = 0
KPG1 121116Z 02016KT 02/M10 A302 RMK A01 T00231100  RH  040%=      5-min Rain = 0
KPG1 121117Z 02015KT 02/M10 A302 RMK A01 T00231100  RH  040%=      5-min Rain = 0
KPG1 121118Z 02017KT 02/M10 A302 RMK A01 T00221100  RH  040%=      5-min Rain = 0
KPG1 121119Z 02016KT 02/M10 A302 RMK A01 T00221101  RH  040%=      5-min Rain = 0
KPG1 121120Z 02016KT 02/M10 A302 RMK A01 T00221101  RH  040%=      5-min Rain = 0
KPG1 121121Z 02016KT 02/M10 A302 RMK A01 T00221100  RH  040%=      5-min Rain = 0
KPG1 121122Z 02017KT 02/M10 A302 RMK A01 T00221100  RH  040%=      5-min Rain = 0
KPG1 121123Z 02017KT 02/M10 A302 RMK A01 T00221100  RH  040%=      5-min Rain = 0
KPG1 121124Z 02018KT 02/M10 A302 RMK A01 T00221100  RH  040%=      5-min Rain = 0
KPG1 121125Z 02016KT 02/M10 A302 RMK A01 T00221100  RH  040%=      5-min Rain = 0
KPG1 121126Z 02016KT 02/M10 A302 RMK A01 T00221100  RH  040%=      5-min Rain = 0
KPG1 121127Z 02015KT 02/M10 A302 RMK A01 T00221100  RH  040%=      5-min Rain = 0
KPG1 121128Z 02016KT 02/M10 A302 RMK A01 T00221100  RH  040%=      5-min Rain = 0
KPG1 121129Z 02016KT 02/M10 A302 RMK A01 T00221100  RH  040%=      5-min Rain = 0
KPG1 121130Z 02016KT 02/M10 A302 RMK A01 T00221100  RH  040%=      5-min Rain = 0
KPG1 121131Z 02016KT 02/M10 A302 RMK A01 T00221100  RH  040%=      5-min Rain = 0
KPG1 121132Z 02014KT 02/M10 A302 RMK A01 T00211100  RH  040%=      5-min Rain = 0
KPG1 121133Z 02014KT 02/M10 A302 RMK A01 T00211101  RH  040%=      5-min Rain = 0
KPG1 121134Z 02015KT 02/M10 A302 RMK A01 T00201101  RH  040%=      5-min Rain = 0
KPG1 121135Z 02015KT 02/M10 A302 RMK A01 T00201101  RH  040%=      5-min Rain = 0
KPG1 121136Z 02014KT 02/M10 A302 RMK A01 T00211100  RH  040%=      5-min Rain = 0
KPG1 121137Z 02015KT 02/M10 A302 RMK A01 T00201101  RH  040%=      5-min Rain = 0
KPG1 121138Z 02014KT 02/M10 A302 RMK A01 T00201101  RH  040%=      5-min Rain = 0
KPG1 121139Z 02013KT 02/M10 A302 RMK A01 T00211100  RH  040%=      5-min Rain = 0
KPG1 121140Z 02016KT 02/M10 A302 RMK A01 T00201101  RH  040%=      5-min Rain = 0
KPG1 121141Z 02017KT 02/M10 A302 RMK A01 T00201101  RH  040%=      5-min Rain = 0
KPG1 121142Z 02016KT 02/M10 A302 RMK A01 T00201101  RH  040%=      5-min Rain = 0
KPG1 121143Z 01015KT 02/M10 A302 RMK A01 T00211101  RH  040%=      5-min Rain = 0
KPG1 121144Z 02017KT 02/M10 A302 RMK A01 T00211101  RH  040%=      5-min Rain = 0
KPG1 121145Z 01015KT 02/M10 A3021 RMK A01 T00211101  RH  040%=      5-min Rain = 0
KPG1 121146Z 02018KT 02/M10 A302 RMK A01 T00211101  RH  040%=      5-min Rain = 0
KPG1 121147Z 02015KT 02/M10 A302 RMK A01 T00211101  RH  040%=      5-min Rain = 0
KPG1 121148Z 02016KT 02/M10 A3021 RMK A01 T00211101  RH  040%=      5-min Rain = 0
KPG1 121149Z 02016KT 02/M10 A3021 RMK A01 T00211101  RH  040%=      5-min Rain = 0
KPG1 121150Z 01016KT 02/M10 A3021 RMK A01 T00211101  RH  040%=      5-min Rain = 0
KPG1 121151Z 02016KT 02/M10 A3021 RMK A01 T00211101  RH  040%=      5-min Rain = 0
KPG1 121152Z 02017KT 02/M10 A302 RMK A01 T00211101  RH  040%=      5-min Rain = 0
KPG1 121153Z 02017KT 02/M10 A3021 RMK A01 T00211101  RH  040%=      5-min Rain = 0
KPG1 121154Z 02017KT 02/M10 A3021 RMK A01 T00211101  RH  040%=      5-min Rain = 0
KPG1 121155Z 02016KT 02/M10 A3021 RMK A01 T00201101  RH  040%=      5-min Rain = 0
KPG1 121156Z 02016KT 02/M10 A3021 RMK A01 T00201102  RH  040%=      5-min Rain = 0
KPG1 121157Z 02017KT 02/M10 A3021 RMK A01 T00201101  RH  040%=      5-min Rain = 0
KPG1 121158Z 02016KT 02/M10 A3021 RMK A01 T00201101  RH  040%=      5-min Rain = 0
KPG1 121159Z 02018KT 02/M10 A3021 RMK A01 T00201101  RH  040%=      5-min Rain = 0
KPG1 121200Z 02015KT 02/M10 A3021 RMK A01 T00201101  RH  040%=      5-min Rain = 0
KPG1 121201Z 02015KT 02/M10 A3021 RMK A01 T00201101  RH  040%=      5-min Rain = 0
KPG1 121202Z 02014KT 02/M10 A3021 RMK A01 T00191101  RH  040%=      5-min Rain = 0
KPG1 121203Z 02015KT 02/M10 A3021 RMK A01 T00191101  RH  040%=      5-min Rain = 0
KPG1 121204Z 03014KT 02/M10 A3021 RMK A01 T00191101  RH  041%=      5-min Rain = 0
KPG1 121205Z 03013KT 02/M10 A3021 RMK A01 T00191101  RH  041%=      5-min Rain = 0
KPG1 121206Z 02013KT 02/M10 A3021 RMK A01 T00181102  RH  041%=      5-min Rain = 0
KPG1 121207Z 02015KT 02/M10 A3021 RMK A01 T00171102  RH  041%=      5-min Rain = 0
KPG1 121208Z 02016KT 02/M10 A3021 RMK A01 T00181101  RH  041%=      5-min Rain = 0
KPG1 121209Z 02015KT 02/M10 A3021 RMK A01 T00181101  RH  041%=      5-min Rain = 0
KPG1 121210Z 02015KT 02/M10 A3021 RMK A01 T00181101  RH  041%=      5-min Rain = 0
KPG1 121211Z 02015KT 02/M10 A3021 RMK A01 T00181101  RH  041%=      5-min Rain = 0
KPG1 121212Z 03015KT 02/M10 A3021 RMK A01 T00181102  RH  041%=      5-min Rain = 0
KPG1 121213Z 02013KT 02/M10 A3021 RMK A01 T00171101  RH  041%=      5-min Rain = 0
KPG1 121214Z 03013KT 02/M10 A3021 RMK A01 T00171101  RH  041%=      5-min Rain = 0
KPG1 121215Z 03014KT 02/M10 A3021 RMK A01 T00171102  RH  041%=      5-min Rain = 0
KPG1 121216Z 03014KT 02/M10 A3021 RMK A01 T00161102  RH  041%=      5-min Rain = 0
KPG1 121217Z 03013KT 02/M10 A3021 RMK A01 T00161101  RH  041%=      5-min Rain = 0
KPG1 121218Z 03014KT 02/M10 A3021 RMK A01 T00161102  RH  041%=      5-min Rain = 0
KPG1 121219Z 03014KT 02/M10 A3021 RMK A01 T00161101  RH  041%=      5-min Rain = 0
KPG1 121220Z 03014KT 02/M10 A3021 RMK A01 T00151102  RH  041%=      5-min Rain = 0
KPG1 121221Z 03015KT 02/M10 A3021 RMK A01 T00151101  RH  041%=      5-min Rain = 0
KPG1 121222Z 03015KT 02/M10 A3021 RMK A01 T00151101  RH  042%=      5-min Rain = 0
KPG1 121223Z 03016KT 02/M10 A3021 RMK A01 T00161101  RH  042%=      5-min Rain = 0
KPG1 121224Z 02015KT 02/M10 A3021 RMK A01 T00161101  RH  042%=      5-min Rain = 0
KPG1 121225Z 02017KT 02/M10 A3021 RMK A01 T00161100  RH  042%=      5-min Rain = 0
KPG1 121226Z 02017KT 02/M10 A3021 RMK A01 T00161100  RH  042%=      5-min Rain = 0
KPG1 121227Z 03015KT 02/M10 A3021 RMK A01 T00171099  RH  042%=      5-min Rain = 0
KPG1 121228Z 03015KT 02/M10 A3021 RMK A01 T00161100  RH  042%=      5-min Rain = 0
KPG1 121229Z 03013KT 02/M10 A3021 RMK A01 T00161099  RH  042%=      5-min Rain = 0
KPG1 121230Z 03014KT 02/M10 A3021 RMK A01 T00161100  RH  042%=      5-min Rain = 0
KPG1 121231Z 03014KT 02/M10 A3021 RMK A01 T00151100  RH  042%=      5-min Rain = 0
KPG1 121232Z 03015KT 02/M10 A3021 RMK A01 T00151099  RH  042%=      5-min Rain = 0
KPG1 121233Z 03015KT 02/M10 A3021 RMK A01 T00151099  RH  042%=      5-min Rain = 0
KPG1 121234Z 03013KT 02/M10 A3021 RMK A01 T00151099  RH  042%=      5-min Rain = 0
KPG1 121235Z 03014KT 02/M10 A3021 RMK A01 T00151099  RH  042%=      5-min Rain = 0
KPG1 121236Z 04015KT 02/M10 A3021 RMK A01 T00151099  RH  043%=      5-min Rain = 0
KPG1 121237Z 03014KT 02/M10 A3021 RMK A01 T00151099  RH  043%=      5-min Rain = 0
KPG1 121238Z 03015KT 02/M10 A3022 RMK A01 T00151099  RH  043%=      5-min Rain = 0
KPG1 121239Z 03014KT 02/M10 A3022 RMK A01 T00151099  RH  043%=      5-min Rain = 0
KPG1 121240Z 03014KT 02/M10 A3022 RMK A01 T00151098  RH  043%=      5-min Rain = 0
KPG1 121241Z 03016KT 02/M10 A3022 RMK A01 T00151099  RH  043%=      5-min Rain = 0
KPG1 121242Z 03015KT 02/M10 A3022 RMK A01 T00151099  RH  043%=      5-min Rain = 0
KPG1 121243Z 03015KT 02/M10 A3022 RMK A01 T00151098  RH  043%=      5-min Rain = 0
KPG1 121244Z 03014KT 02/M10 A3022 RMK A01 T00151099  RH  043%=      5-min Rain = 0
KPG1 121245Z 03015KT 02/M10 A3022 RMK A01 T00151098  RH  043%=      5-min Rain = 0
KPG1 121246Z 03014KT 02/M10 A3022 RMK A01 T00151099  RH  043%=      5-min Rain = 0
KPG1 121247Z 03015KT 02/M10 A3022 RMK A01 T00151098  RH  043%=      5-min Rain = 0
KPG1 121248Z 04015KT 02/M10 A3022 RMK A01 T00151099  RH  043%=      5-min Rain = 0
KPG1 121249Z 03016KT 02/M10 A3022 RMK A01 T00151099  RH  043%=      5-min Rain = 0
KPG1 121250Z 03018KT 02/M10 A3022 RMK A01 T00151099  RH  043%=      5-min Rain = 0
KPG1 121251Z 03017KT 02/M10 A3022 RMK A01 T00151099  RH  043%=      5-min Rain = 0
KPG1 121252Z 04017KT 02/M10 A3022 RMK A01 T00151098  RH  042%=      5-min Rain = 0
KPG1 121253Z 04017KT 02/M10 A3022 RMK A01 T00161099  RH  042%=      5-min Rain = 0
KPG1 121254Z 04018KT 02/M10 A3022 RMK A01 T00161099  RH  042%=      5-min Rain = 0
KPG1 121255Z 04017KT 02/M10 A3022 RMK A01 T00161099  RH  042%=      5-min Rain = 0
KPG1 121256Z 03016KT 02/M10 A3022 RMK A01 T00161099  RH  042%=      5-min Rain = 0
KPG1 121257Z 04015KT 02/M10 A3022 RMK A01 T00151099  RH  042%=      5-min Rain = 0
KPG1 121258Z 03013KT 02/M10 A3022 RMK A01 T00161099  RH  042%=      5-min Rain = 0
KPG1 121259Z 04016KT 02/M10 A3022 RMK A01 T00161099  RH  042%=      5-min Rain = 0
KPG1 121300Z 04016KT 02/M10 A3022 RMK A01 T00151099  RH  042%=      5-min Rain = 0
KPG1 121301Z 03014KT 02/M10 A3023 RMK A01 T00151099  RH  042%=      5-min Rain = 0
KPG1 121302Z 03014KT 01/M10 A3022 RMK A01 T00141100  RH  042%=      5-min Rain = 0
KPG1 121303Z 03014KT 01/M10 A3022 RMK A01 T00131100  RH  043%=      5-min Rain = 0
KPG1 121304Z 03013KT 01/M10 A3023 RMK A01 T00131100  RH  043%=      5-min Rain = 0
KPG1 121305Z 04014KT 01/M10 A3023 RMK A01 T00121100  RH  043%=      5-min Rain = 0
KPG1 121306Z 03015KT 01/M10 A3023 RMK A01 T00131100  RH  043%=      5-min Rain = 0
KPG1 121307Z 03013KT 01/M10 A3023 RMK A01 T00121100  RH  043%=      5-min Rain = 0
KPG1 121308Z 03013KT 01/M10 A3023 RMK A01 T00121100  RH  043%=      5-min Rain = 0
KPG1 121309Z 03013KT 01/M10 A3023 RMK A01 T00111101  RH  043%=      5-min Rain = 0
KPG1 121310Z 03012KT 01/M10 A3023 RMK A01 T00101101  RH  043%=      5-min Rain = 0
KPG1 121311Z 03014KT 01/M10 A3023 RMK A01 T00101101  RH  043%=      5-min Rain = 0
KPG1 121312Z 03015KT 01/M10 A3023 RMK A01 T00101100  RH  044%=      5-min Rain = 0
KPG1 121313Z 03015KT 01/M10 A3023 RMK A01 T00101100  RH  044%=      5-min Rain = 0
KPG1 121314Z 03013KT 01/M10 A3023 RMK A01 T00101100  RH  043%=      5-min Rain = 0
KPG1 121315Z 04013KT 01/M10 A3023 RMK A01 T00111100  RH  044%=      5-min Rain = 0
KPG1 121316Z 03013KT 01/M10 A3023 RMK A01 T00111100  RH  044%=      5-min Rain = 0
KPG1 121317Z 04015KT 01/M10 A3023 RMK A01 T00111100  RH  044%=      5-min Rain = 0
KPG1 121318Z 04013KT 01/M10 A3023 RMK A01 T00111100  RH  044%=      5-min Rain = 0
KPG1 121319Z 03014KT 01/M10 A3023 RMK A01 T00111100  RH  044%=      5-min Rain = 0
KPG1 121320Z 03013KT 01/M10 A3023 RMK A01 T00111100  RH  044%=      5-min Rain = 0
KPG1 121321Z 03012KT 01/M10 A3023 RMK A01 T00111100  RH  043%=      5-min Rain = 0
KPG1 121322Z 03014KT 01/M10 A3023 RMK A01 T00111100  RH  043%=      5-min Rain = 0
KPG1 121323Z 03014KT 01/M10 A3023 RMK A01 T00101100  RH  044%=      5-min Rain = 0
KPG1 121324Z 03015KT 01/M10 A3023 RMK A01 T00101100  RH  044%=      5-min Rain = 0
KPG1 121325Z 03014KT 01/M10 A3023 RMK A01 T00111100  RH  043%=      5-min Rain = 0
KPG1 121326Z 03014KT 01/M10 A3023 RMK A01 T00101100  RH  043%=      5-min Rain = 0
KPG1 121327Z 03015KT 01/M10 A3023 RMK A01 T00101100  RH  043%=      5-min Rain = 0
KPG1 121328Z 03016KT 01/M10 A3023 RMK A01 T00101100  RH  044%=      5-min Rain = 0
KPG1 121329Z 03015KT 01/M10 A3023 RMK A01 T00101100  RH  044%=      5-min Rain = 0
KPG1 121330Z 03015KT 01/M10 A3023 RMK A01 T00101100  RH  044%=      5-min Rain = 0
KPG1 121331Z 03015KT 01/M10 A3023 RMK A01 T00101100  RH  044%=      5-min Rain = 0
KPG1 121332Z 03014KT 01/M10 A3023 RMK A01 T00101100  RH  044%=      5-min Rain = 0
KPG1 121333Z 03013KT 01/M10 A3023 RMK A01 T00101100  RH  044%=      5-min Rain = 0
KPG1 121334Z 03013KT 01/M10 A3023 RMK A01 T00101100  RH  044%=      5-min Rain = 0
KPG1 121335Z 03014KT 01/M10 A3023 RMK A01 T00101100  RH  044%=      5-min Rain = 0
KPG1 121336Z 03014KT 01/M10 A3024 RMK A01 T00091100  RH  044%=      5-min Rain = 0
KPG1 121337Z 03014KT 01/M10 A3024 RMK A01 T00091100  RH  044%=      5-min Rain = 0
KPG1 121338Z 03014KT 01/M10 A3024 RMK A01 T00091100  RH  044%=      5-min Rain = 0
KPG1 121339Z 03014KT 01/M10 A3024 RMK A01 T00101100  RH  044%=      5-min Rain = 0
KPG1 121340Z 03013KT 01/M10 A3024 RMK A01 T00101099  RH  044%=      5-min Rain = 0
KPG1 121341Z 03014KT 01/M10 A3024 RMK A01 T00101099  RH  044%=      5-min Rain = 0
KPG1 121342Z 03014KT 01/M10 A3024 RMK A01 T00101099  RH  044%=      5-min Rain = 0
KPG1 121343Z 03013KT 01/M10 A3024 RMK A01 T00101099  RH  044%=      5-min Rain = 0
KPG1 121344Z 03014KT 01/M10 A3024 RMK A01 T00101099  RH  044%=      5-min Rain = 0
KPG1 121345Z 03013KT 01/M10 A3024 RMK A01 T00101099  RH  044%=      5-min Rain = 0
KPG1 121346Z 03014KT 01/M10 A3024 RMK A01 T00091100  RH  044%=      5-min Rain = 0
KPG1 121347Z 03015KT 01/M10 A3024 RMK A01 T00101099  RH  044%=      5-min Rain = 0
KPG1 121348Z 04014KT 01/M10 A3024 RMK A01 T00101099  RH  044%=      5-min Rain = 0
KPG1 121349Z 04017KT 01/M10 A3024 RMK A01 T00101099  RH  044%=      5-min Rain = 0
KPG1 121350Z 03015KT 01/M10 A3024 RMK A01 T00101099  RH  044%=      5-min Rain = 0
KPG1 121351Z 03016KT 01/M10 A3024 RMK A01 T00111099  RH  044%=      5-min Rain = 0
KPG1 121352Z 03015KT 01/M10 A3024 RMK A01 T00101099  RH  044%=      5-min Rain = 0
KPG1 121353Z 03015KT 01/M10 A3024 RMK A01 T00101099  RH  044%=      5-min Rain = 0
KPG1 121354Z 03013KT 01/M10 A3024 RMK A01 T00101099  RH  044%=      5-min Rain = 0
KPG1 121355Z 03014KT 01/M10 A3024 RMK A01 T00101099  RH  044%=      5-min Rain = 0
KPG1 121356Z 03015KT 01/M10 A3024 RMK A01 T00101099  RH  044%=      5-min Rain = 0
KPG1 121357Z 04015KT 01/M10 A3024 RMK A01 T00101099  RH  044%=      5-min Rain = 0
KPG1 121358Z 03015KT 01/M10 A3024 RMK A01 T00111098  RH  044%=      5-min Rain = 0
KPG1 121359Z 04016KT 01/M10 A3024 RMK A01 T00111098  RH  044%=      5-min Rain = 0
KPG1 121400Z 04016KT 01/M10 A3024 RMK A01 T00111099  RH  044%=      5-min Rain = 0
KPG1 121401Z 03016KT 01/M10 A3024 RMK A01 T00111098  RH  044%=      5-min Rain = 0
KPG1 121402Z 04015KT 01/M10 A3024 RMK A01 T00111098  RH  044%=      5-min Rain = 0
KPG1 121403Z 04014KT 01/M10 A3024 RMK A01 T00121098  RH  044%=      5-min Rain = 0
KPG1 121404Z 03015KT 01/M10 A3024 RMK A01 T00111098  RH  044%=      5-min Rain = 0
KPG1 121405Z 04015KT 01/M10 A3024 RMK A01 T00111098  RH  044%=      5-min Rain = 0
KPG1 121406Z 04015KT 01/M10 A3024 RMK A01 T00111098  RH  044%=      5-min Rain = 0
KPG1 121407Z 03014KT 01/M10 A3024 RMK A01 T00111098  RH  044%=      5-min Rain = 0
KPG1 121408Z 03014KT 01/M10 A3024 RMK A01 T00111098  RH  044%=      5-min Rain = 0
KPG1 121409Z 03013KT 01/M10 A3024 RMK A01 T00111099  RH  044%=      5-min Rain = 0
KPG1 121410Z 04016KT 01/M10 A3024 RMK A01 T00111098  RH  044%=      5-min Rain = 0
KPG1 121411Z 04015KT 01/M10 A3024 RMK A01 T00111098  RH  044%=      5-min Rain = 0
KPG1 121412Z 04014KT 01/M10 A3024 RMK A01 T00121098  RH  044%=      5-min Rain = 0
KPG1 121413Z 04015KT 01/M10 A3025 RMK A01 T00121098  RH  044%=      5-min Rain = 0
KPG1 121414Z 03016KT 01/M10 A3025 RMK A01 T00121098  RH  044%=      5-min Rain = 0
KPG1 121415Z 04016KT 01/M10 A3025 RMK A01 T00121098  RH  044%=      5-min Rain = 0
KPG1 121416Z 04017KT 01/M10 A3025 RMK A01 T00121098  RH  044%=      5-min Rain = 0
KPG1 121417Z 04015KT 01/M10 A3025 RMK A01 T00121098  RH  044%=      5-min Rain = 0
KPG1 121418Z 04015KT 01/M10 A3025 RMK A01 T00121099  RH  043%=      5-min Rain = 0
KPG1 121419Z 03015KT 01/M10 A3025 RMK A01 T00121098  RH  044%=      5-min Rain = 0
KPG1 121420Z 04013KT 01/M10 A3025 RMK A01 T00121098  RH  044%=      5-min Rain = 0
KPG1 121421Z 03015KT 01/M10 A3025 RMK A01 T00121098  RH  044%=      5-min Rain = 0
KPG1 121422Z 04015KT 01/M10 A3025 RMK A01 T00131098  RH  044%=      5-min Rain = 0
KPG1 121423Z 03015KT 01/M10 A3025 RMK A01 T00131098  RH  043%=      5-min Rain = 0
KPG1 121424Z 03015KT 01/M10 A3025 RMK A01 T00141097  RH  043%=      5-min Rain = 0
KPG1 121425Z 03014KT 01/M10 A3025 RMK A01 T00141098  RH  043%=      5-min Rain = 0
KPG1 121426Z 04015KT 02/M10 A3025 RMK A01 T00151098  RH  043%=      5-min Rain = 0
KPG1 121427Z 04016KT 02/M10 A3025 RMK A01 T00151098  RH  043%=      5-min Rain = 0
KPG1 121428Z 03017KT 02/M10 A3025 RMK A01 T00151098  RH  043%=      5-min Rain = 0
KPG1 121429Z 04016KT 02/M10 A3025 RMK A01 T00151098  RH  043%=      5-min Rain = 0
KPG1 121430Z 04017KT 02/M10 A3025 RMK A01 T00151098  RH  043%=      5-min Rain = 0
KPG1 121431Z 03018KT 02/M10 A3025 RMK A01 T00161098  RH  043%=      5-min Rain = 0
KPG1 121432Z 04017KT 02/M10 A3025 RMK A01 T00161098  RH  042%=      5-min Rain = 0
KPG1 121433Z 04018KT 02/M10 A3025 RMK A01 T00161098  RH  042%=      5-min Rain = 0
KPG1 121434Z 04017KT 02/M10 A3025 RMK A01 T00171098  RH  042%=      5-min Rain = 0
KPG1 121435Z 04017KT 02/M10 A3025 RMK A01 T00171098  RH  042%=      5-min Rain = 0
KPG1 121436Z 04017KT 02/M10 A3025 RMK A01 T00181097  RH  042%=      5-min Rain = 0
KPG1 121437Z 04017KT 02/M10 A3025 RMK A01 T00181098  RH  042%=      5-min Rain = 0
KPG1 121438Z 04016KT 02/M10 A3025 RMK A01 T00181098  RH  042%=      5-min Rain = 0
KPG1 121439Z 04018KT 02/M10 A3025 RMK A01 T00181098  RH  042%=      5-min Rain = 0
KPG1 121440Z 04016G21KT 02/M10 A3025 RMK A01 T00181098  RH  042%=      5-min Rain = 0
KPG1 121441Z 04017KT 02/M10 A3025 RMK A01 T00191098  RH  042%=      5-min Rain = 0
KPG1 121442Z 04019KT 02/M10 A3025 RMK A01 T00191097  RH  042%=      5-min Rain = 0
KPG1 121443Z 04020KT 02/M10 A3026 RMK A01 T00191097  RH  042%=      5-min Rain = 0
KPG1 121444Z 04017KT 02/M10 A3026 RMK A01 T00191097  RH  042%=      5-min Rain = 0
KPG1 121445Z 04016KT 02/M10 A3026 RMK A01 T00191097  RH  042%=      5-min Rain = 0
KPG1 121446Z 04017KT 02/M10 A3026 RMK A01 T00191097  RH  042%=      5-min Rain = 0
KPG1 121447Z 04018KT 02/M10 A3026 RMK A01 T00201097  RH  042%=      5-min Rain = 0
KPG1 121448Z 03018KT 02/M10 A3026 RMK A01 T00201097  RH  041%=      5-min Rain = 0
KPG1 121449Z 03017KT 02/M10 A3026 RMK A01 T00201097  RH  041%=      5-min Rain = 0
KPG1 121450Z 04018KT 02/M10 A3026 RMK A01 T00211097  RH  041%=      5-min Rain = 0
KPG1 121451Z 04019KT 02/M10 A3026 RMK A01 T00211097  RH  041%=      5-min Rain = 0
KPG1 121452Z 04018KT 02/M10 A3026 RMK A01 T00211097  RH  041%=      5-min Rain = 0
KPG1 121453Z 04019KT 02/M10 A3026 RMK A01 T00221097  RH  041%=      5-min Rain = 0
KPG1 121454Z 04019KT 02/M10 A3026 RMK A01 T00221097  RH  041%=      5-min Rain = 0
KPG1 121455Z 03019KT 02/M10 A3026 RMK A01 T00221097  RH  041%=      5-min Rain = 0
KPG1 121456Z 03018KT 02/M10 A3026 RMK A01 T00221096  RH  041%=      5-min Rain = 0
KPG1 121457Z 04015G21KT 02/M10 A3026 RMK A01 T00231096  RH  041%=      5-min Rain = 0
KPG1 121458Z 04019KT 03/M10 A3026 RMK A01 T00251095  RH  041%=      5-min Rain = 0
KPG1 121459Z 04019KT 03/M10 A3026 RMK A01 T00251096  RH  041%=      5-min Rain = 0
KPG1 121500Z 04017KT 03/M10 A3026 RMK A01 T00251096  RH  041%=      5-min Rain = 0
KPG1 121501Z 04018KT 03/M10 A3026 RMK A01 T00251096  RH  040%=      5-min Rain = 0
KPG1 121502Z 04018KT 02/M10 A3026 RMK A01 T00241097  RH  041%=      5-min Rain = 0
KPG1 121503Z 04017KT 02/M10 A3026 RMK A01 T00241097  RH  041%=      5-min Rain = 0
KPG1 121504Z 03016KT 02/M10 A3026 RMK A01 T00241096  RH  041%=      5-min Rain = 0
KPG1 121505Z 03017KT 02/M10 A3026 RMK A01 T00241096  RH  041%=      5-min Rain = 0
KPG1 121506Z 04017KT 03/M10 A3026 RMK A01 T00251096  RH  040%=      5-min Rain = 0
KPG1 121507Z 04018KT 03/M10 A3026 RMK A01 T00261096  RH  040%=      5-min Rain = 0
KPG1 121508Z 04019KT 03/M10 A3026 RMK A01 T00261096  RH  040%=      5-min Rain = 0
KPG1 121509Z 04018KT 03/M10 A3026 RMK A01 T00261097  RH  040%=      5-min Rain = 0
KPG1 121510Z 05016KT 03/M10 A3026 RMK A01 T00261096  RH  040%=      5-min Rain = 0
KPG1 121511Z 04016KT 03/M10 A3026 RMK A01 T00261096  RH  040%=      5-min Rain = 0
KPG1 121512Z 04014KT 03/M10 A3026 RMK A01 T00261096  RH  040%=      5-min Rain = 0
KPG1 121513Z 04016KT 03/M09 A3026 RMK A01 T00291094  RH  040%=      5-min Rain = 0
KPG1 121514Z 04016KT 03/M10 A3026 RMK A01 T00291095  RH  040%=      5-min Rain = 0
KPG1 121515Z 02014KT 03/M10 A3026 RMK A01 T00291095  RH  040%=      5-min Rain = 0
KPG1 121516Z 04015KT 03/M09 A3026 RMK A01 T00311094  RH  039%=      5-min Rain = 0
KPG1 121517Z 04018KT 03/M10 A3026 RMK A01 T00311095  RH  039%=      5-min Rain = 0
KPG1 121518Z 04017KT 03/M10 A3026 RMK A01 T00291096  RH  039%=      5-min Rain = 0
KPG1 121519Z 04018KT 03/M10 A3027 RMK A01 T00281096  RH  040%=      5-min Rain = 0
KPG1 121520Z 04018KT 03/M10 A3026 RMK A01 T00281095  RH  040%=      5-min Rain = 0
KPG1 121521Z 03015KT 03/M10 A3027 RMK A01 T00281095  RH  040%=      5-min Rain = 0
KPG1 121522Z 03018KT 03/M09 A3027 RMK A01 T00301094  RH  040%=      5-min Rain = 0
KPG1 121523Z 04016KT 03/M10 A3027 RMK A01 T00301095  RH  039%=      5-min Rain = 0
KPG1 121524Z 05015KT 03/M10 A3027 RMK A01 T00301095  RH  039%=      5-min Rain = 0
KPG1 121525Z 04018KT 03/M10 A3027 RMK A01 T00301095  RH  039%=      5-min Rain = 0
KPG1 121526Z 04016KT 03/M10 A3027 RMK A01 T00301095  RH  039%=      5-min Rain = 0
KPG1 121527Z 04016KT 03/M10 A3027 RMK A01 T00301095  RH  039%=      5-min Rain = 0
KPG1 121528Z 04017KT 03/M09 A3027 RMK A01 T00311094  RH  039%=      5-min Rain = 0
KPG1 121529Z 04019KT 03/M09 A3027 RMK A01 T00321094  RH  039%=      5-min Rain = 0
KPG1 121530Z 04018KT 03/M10 A3027 RMK A01 T00301096  RH  039%=      5-min Rain = 0
KPG1 121531Z 04017KT 03/M10 A3027 RMK A01 T00291095  RH  039%=      5-min Rain = 0
KPG1 121532Z 04017KT 03/M10 A3027 RMK A01 T00291095  RH  039%=      5-min Rain = 0
KPG1 121533Z 04016KT 03/M10 A3027 RMK A01 T00301095  RH  039%=      5-min Rain = 0
KPG1 121534Z 03016KT 03/M09 A3027 RMK A01 T00311094  RH  039%=      5-min Rain = 0
KPG1 121535Z 04016KT 03/M09 A3027 RMK A01 T00321093  RH  039%=      5-min Rain = 0
KPG1 121536Z 03016KT 03/M09 A3027 RMK A01 T00331094  RH  039%=      5-min Rain = 0
KPG1 121537Z 03016KT 03/M09 A3027 RMK A01 T00341093  RH  039%=      5-min Rain = 0
KPG1 121538Z 04015KT 04/M09 A3027 RMK A01 T00351093  RH  039%=      5-min Rain = 0
KPG1 121539Z 04017KT 04/M09 A3027 RMK A01 T00351094  RH  038%=      5-min Rain = 0
KPG1 121540Z 04016KT 03/M09 A3027 RMK A01 T00341094  RH  038%=      5-min Rain = 0
KPG1 121541Z 04016KT 03/M09 A3027 RMK A01 T00341094  RH  038%=      5-min Rain = 0
KPG1 121542Z 04017KT 03/M10 A3027 RMK A01 T00341095  RH  038%=      5-min Rain = 0
KPG1 121543Z 04017KT 03/M09 A3027 RMK A01 T00331094  RH  039%=      5-min Rain = 0
KPG1 121544Z 04017KT 03/M09 A3027 RMK A01 T00331094  RH  039%=      5-min Rain = 0
KPG1 121545Z 04017KT 03/M09 A3027 RMK A01 T00331094  RH  039%=      5-min Rain = 0
KPG1 121546Z 04016KT 03/M09 A3027 RMK A01 T00331093  RH  039%=      5-min Rain = 0
KPG1 121547Z 04016KT 03/M09 A3027 RMK A01 T00341092  RH  039%=      5-min Rain = 0
KPG1 121548Z 04016G21KT 04/M09 A3027 RMK A01 T00351092  RH  039%=      5-min Rain = 0
KPG1 121549Z 03014KT 04/M09 A3027 RMK A01 T00361093  RH  038%=      5-min Rain = 0
KPG1 121550Z 04016KT 04/M09 A3027 RMK A01 T00391091  RH  038%=      5-min Rain = 0
KPG1 121551Z 04016KT 04/M09 A3027 RMK A01 T00391093  RH  038%=      5-min Rain = 0
KPG1 121552Z 04016KT 04/M09 A3027 RMK A01 T00381094  RH  038%=      5-min Rain = 0
KPG1 121553Z 03017KT 04/M09 A3027 RMK A01 T00371094  RH  038%=      5-min Rain = 0
KPG1 121554Z 04016KT 04/M09 A3027 RMK A01 T00361094  RH  038%=      5-min Rain = 0
KPG1 121555Z 03015KT 04/M09 A3027 RMK A01 T00361093  RH  038%=      5-min Rain = 0
KPG1 121556Z 03016KT 04/M09 A3027 RMK A01 T00371093  RH  038%=      5-min Rain = 0
KPG1 121557Z 04015KT 04/M09 A3027 RMK A01 T00371093  RH  038%=      5-min Rain = 0
KPG1 121558Z 04015KT 04/M09 A3027 RMK A01 T00381092  RH  038%=      5-min Rain = 0
KPG1 121559Z 04015KT 04/M09 A3027 RMK A01 T00381092  RH  038%=      5-min Rain = 0
KPG1 121600Z 04016KT 04/M09 A3027 RMK A01 T00371093  RH  038%=      5-min Rain = 0
KPG1 121601Z 04017KT 04/M09 A3027 RMK A01 T00371093  RH  038%=      5-min Rain = 0
KPG1 121602Z 04015KT 04/M09 A3028 RMK A01 T00371092  RH  038%=      5-min Rain = 0
KPG1 121603Z 04014KT 04/M09 A3027 RMK A01 T00371092  RH  038%=      5-min Rain = 0
KPG1 121604Z 03014KT 04/M09 A3027 RMK A01 T00401090  RH  038%=      5-min Rain = 0
KPG1 121605Z 04016KT 04/M09 A3027 RMK A01 T00421089  RH  038%=      5-min Rain = 0
KPG1 121606Z 04017KT 04/M09 A3027 RMK A01 T00421091  RH  037%=      5-min Rain = 0
KPG1 121607Z 04016KT 04/M09 A3027 RMK A01 T00391093  RH  038%=      5-min Rain = 0
KPG1 121608Z 04016KT 04/M09 A3027 RMK A01 T00391092  RH  038%=      5-min Rain = 0
KPG1 121609Z 04016KT 04/M09 A3027 RMK A01 T00401090  RH  038%=      5-min Rain = 0
KPG1 121610Z 04017KT 04/M09 A3027 RMK A01 T00411090  RH  038%=      5-min Rain = 0
KPG1 121611Z 03016KT 04/M09 A3027 RMK A01 T00411090  RH  038%=      5-min Rain = 0
KPG1 121612Z 03015KT 04/M09 A3027 RMK A01 T00411090  RH  038%=      5-min Rain = 0
KPG1 121613Z 03015KT 04/M09 A3027 RMK A01 T00411090  RH  038%=      5-min Rain = 0
KPG1 121614Z 04016KT 04/M09 A3027 RMK A01 T00411089  RH  038%=      5-min Rain = 0
KPG1 121615Z 03016KT 04/M09 A3027 RMK A01 T00411090  RH  038%=      5-min Rain = 0
KPG1 121616Z 03013KT 04/M09 A3027 RMK A01 T00411090  RH  038%=      5-min Rain = 0
KPG1 121617Z 04015KT 04/M09 A3027 RMK A01 T00441088  RH  038%=      5-min Rain = 0
KPG1 121618Z 04017KT 05/M09 A3027 RMK A01 T00451089  RH  037%=      5-min Rain = 0
KPG1 121619Z 04015KT 04/M09 A3027 RMK A01 T00431090  RH  037%=      5-min Rain = 0
KPG1 121620Z 04015KT 04/M09 A3027 RMK A01 T00421090  RH  038%=      5-min Rain = 0
KPG1 121621Z 05017KT 04/M09 A3027 RMK A01 T00421090  RH  038%=      5-min Rain = 0
KPG1 121622Z 04016KT 04/M09 A3027 RMK A01 T00411090  RH  038%=      5-min Rain = 0
KPG1 121623Z 04016KT 04/M09 A3027 RMK A01 T00411090  RH  038%=      5-min Rain = 0
KPG1 121624Z 05014KT 04/M09 A3027 RMK A01 T00411089  RH  038%=      5-min Rain = 0
KPG1 121625Z 04014KT 04/M09 A3027 RMK A01 T00421088  RH  038%=      5-min Rain = 0
KPG1 121626Z 04016KT 04/M09 A3027 RMK A01 T00421089  RH  038%=      5-min Rain = 0
KPG1 121627Z 04014KT 04/M09 A3027 RMK A01 T00441087  RH  038%=      5-min Rain = 0
KPG1 121628Z 04017KT 05/M09 A3027 RMK A01 T00461088  RH  037%=      5-min Rain = 0
KPG1 121629Z 04018KT 05/M09 A3027 RMK A01 T00451089  RH  037%=      5-min Rain = 0
KPG1 121630Z 04016KT 04/M09 A3027 RMK A01 T00441089  RH  037%=      5-min Rain = 0
KPG1 121631Z 04016KT 04/M09 A3027 RMK A01 T00431088  RH  038%=      5-min Rain = 0
KPG1 121632Z 03015KT 05/M09 A3027 RMK A01 T00451088  RH  038%=      5-min Rain = 0
KPG1 121633Z 03014KT 05/M09 A3027 RMK A01 T00451088  RH  037%=      5-min Rain = 0
KPG1 121634Z 04012KT 05/M09 A3027 RMK A01 T00451088  RH  037%=      5-min Rain = 0
KPG1 121635Z 04017KT 05/M09 A3027 RMK A01 T00481087  RH  037%=      5-min Rain = 0
KPG1 121636Z 04014KT 05/M09 A3027 RMK A01 T00491087  RH  037%=      5-min Rain = 0
KPG1 121637Z 03016KT 05/M09 A3027 RMK A01 T00481087  RH  037%=      5-min Rain = 0
KPG1 121638Z 03015KT 05/M09 A3027 RMK A01 T00471089  RH  037%=      5-min Rain = 0
KPG1 121639Z 04017KT 05/M09 A3027 RMK A01 T00451089  RH  037%=      5-min Rain = 0
KPG1 121640Z 03014KT 05/M09 A3027 RMK A01 T00451088  RH  037%=      5-min Rain = 0
KPG1 121641Z 03012KT 05/M09 A3027 RMK A01 T00461086  RH  038%=      5-min Rain = 0
KPG1 121642Z 05016KT 05/M09 A3027 RMK A01 T00481085  RH  037%=      5-min Rain = 0
KPG1 121643Z 04015KT 05/M09 A3027 RMK A01 T00471086  RH  037%=      5-min Rain = 0
KPG1 121644Z 02014KT 05/M09 A3027 RMK A01 T00471085  RH  038%=      5-min Rain = 0
KPG1 121645Z 02016KT 05/M08 A3027 RMK A01 T00501084  RH  037%=      5-min Rain = 0
KPG1 121646Z 03015KT 05/M09 A3027 RMK A01 T00511085  RH  037%=      5-min Rain = 0
KPG1 121647Z 03016KT 05/M09 A3027 RMK A01 T00511085  RH  037%=      5-min Rain = 0
KPG1 121648Z 03015KT 05/M09 A3027 RMK A01 T00511085  RH  037%=      5-min Rain = 0
KPG1 121649Z 03014KT 05/M09 A3027 RMK A01 T00501085  RH  037%=      5-min Rain = 0
KPG1 121650Z 04015KT 05/M08 A3027 RMK A01 T00501084  RH  037%=      5-min Rain = 0
KPG1 121651Z 04012KT 05/M08 A3027 RMK A01 T00501084  RH  037%=      5-min Rain = 0
KPG1 121652Z 04011KT 05/M08 A3027 RMK A01 T00521084  RH  037%=      5-min Rain = 0
KPG1 121653Z 01015KT 05/M08 A3027 RMK A01 T00531083  RH  037%=      5-min Rain = 0
KPG1 121654Z 01017KT 05/M08 A3027 RMK A01 T00531084  RH  036%=      5-min Rain = 0
KPG1 121655Z 01016KT 05/M09 A3026 RMK A01 T00511086  RH  037%=      5-min Rain = 0
KPG1 121656Z 03011KT 05/M08 A3027 RMK A01 T00501084  RH  037%=      5-min Rain = 0
KPG1 121657Z 03015KT 06/M08 A3027 RMK A01 T00551082  RH  037%=      5-min Rain = 0
KPG1 121658Z 04014KT 05/M09 A3026 RMK A01 T00531085  RH  036%=      5-min Rain = 0
KPG1 121659Z 04015KT 06/M08 A3027 RMK A01 T00551083  RH  037%=      5-min Rain = 0
KPG1 121700Z 04014KT 05/M08 A3027 RMK A01 T00541084  RH  036%=      5-min Rain = 0
KPG1 121701Z 03013KT 06/M08 A3026 RMK A01 T00551082  RH  037%=      5-min Rain = 0
KPG1 121702Z 04012KT 06/M08 A3026 RMK A01 T00551082  RH  037%=      5-min Rain = 0
KPG1 121703Z 03011KT 06/M08 A3026 RMK A01 T00571081  RH  036%=      5-min Rain = 0
KPG1 121704Z 02012KT 06/M08 A3026 RMK A01 T00601079  RH  036%=      5-min Rain = 0
KPG1 121705Z 03014KT 06/M08 A3026 RMK A01 T00611079  RH  036%=      5-min Rain = 0
KPG1 121706Z 05014KT 06/M08 A3026 RMK A01 T00601080  RH  036%=      5-min Rain = 0
KPG1 121707Z 05013KT 06/M08 A3026 RMK A01 T00581081  RH  036%=      5-min Rain = 0
KPG1 121708Z 03013KT 06/M08 A3026 RMK A01 T00581080  RH  036%=      5-min Rain = 0
KPG1 121709Z 03015KT 06/M08 A3026 RMK A01 T00601080  RH  036%=      5-min Rain = 0
KPG1 121710Z 03014KT 06/M08 A3026 RMK A01 T00581082  RH  036%=      5-min Rain = 0
KPG1 121711Z 04013KT 06/M08 A3026 RMK A01 T00581081  RH  036%=      5-min Rain = 0
KPG1 121712Z 04014KT 06/M08 A3026 RMK A01 T00581082  RH  036%=      5-min Rain = 0
KPG1 121713Z 04015KT 06/M08 A3026 RMK A01 T00571082  RH  036%=      5-min Rain = 0
KPG1 121714Z 04016KT 06/M08 A3026 RMK A01 T00581081  RH  036%=      5-min Rain = 0
KPG1 121715Z 04014KT 06/M08 A3026 RMK A01 T00561083  RH  036%=      5-min Rain = 0
KPG1 121716Z 04015KT 06/M08 A3026 RMK A01 T00571081  RH  036%=      5-min Rain = 0
KPG1 121717Z 04016KT 06/M08 A3026 RMK A01 T00601081  RH  036%=      5-min Rain = 0
KPG1 121718Z 05015KT 06/M08 A3026 RMK A01 T00571083  RH  036%=      5-min Rain = 0
KPG1 121719Z 04014KT 06/M08 A3026 RMK A01 T00551081  RH  037%=      5-min Rain = 0
KPG1 121720Z 04013KT 06/M08 A3026 RMK A01 T00561078  RH  037%=      5-min Rain = 0
KPG1 121721Z 04013KT 06/M08 A3026 RMK A01 T00581076  RH  037%=      5-min Rain = 0
KPG1 121722Z 04012KT 06/M08 A3026 RMK A01 T00591076  RH  037%=      5-min Rain = 0
KPG1 121723Z 03013KT 06/M07 A3026 RMK A01 T00631073  RH  037%=      5-min Rain = 0
KPG1 121724Z 03016KT 07/M07 A3026 RMK A01 T00681073  RH  036%=      5-min Rain = 0
KPG1 121725Z 05013G18KT 07/M08 A3026 RMK A01 T00651078  RH  035%=      5-min Rain = 0
KPG1 121726Z 03014KT 06/M08 A3026 RMK A01 T00631076  RH  036%=      5-min Rain = 0
KPG1 121727Z 03013KT 07/M08 A3026 RMK A01 T00651075  RH  036%=      5-min Rain = 0
KPG1 121728Z 04014KT 07/M08 A3025 RMK A01 T00651075  RH  036%=      5-min Rain = 0
KPG1 121729Z 04015KT 06/M08 A3025 RMK A01 T00631077  RH  036%=      5-min Rain = 0
KPG1 121730Z 04015KT 06/M08 A3025 RMK A01 T00631077  RH  036%=      5-min Rain = 0
KPG1 121731Z 04015KT 06/M08 A3025 RMK A01 T00631076  RH  036%=      5-min Rain = 0
KPG1 121732Z 04014KT 06/M08 A3025 RMK A01 T00621075  RH  037%=      5-min Rain = 0
KPG1 121733Z 03014KT 06/M08 A3025 RMK A01 T00621076  RH  037%=      5-min Rain = 0
KPG1 121734Z 03014KT 06/M07 A3025 RMK A01 T00621074  RH  037%=      5-min Rain = 0
KPG1 121735Z 04014KT 07/M07 A3025 RMK A01 T00651072  RH  037%=      5-min Rain = 0
KPG1 121736Z 04013KT 07/M07 A3025 RMK A01 T00651074  RH  036%=      5-min Rain = 0
KPG1 121737Z 04012KT 07/M07 A3025 RMK A01 T00651073  RH  036%=      5-min Rain = 0
KPG1 121738Z 04014KT 07/M07 A3025 RMK A01 T00671072  RH  036%=      5-min Rain = 0
KPG1 121739Z 04014KT 07/M07 A3025 RMK A01 T00651074  RH  036%=      5-min Rain = 0
KPG1 121740Z 04015KT 06/M08 A3025 RMK A01 T00621075  RH  037%=      5-min Rain = 0
KPG1 121741Z 05013KT 06/M07 A3025 RMK A01 T00601074  RH  038%=      5-min Rain = 0
KPG1 121742Z 05014KT 06/M07 A3025 RMK A01 T00601072  RH  038%=      5-min Rain = 0
KPG1 121743Z 05015KT 06/M07 A3024 RMK A01 T00621070  RH  038%=      5-min Rain = 0
KPG1 121744Z 05013KT 06/M07 A3024 RMK A01 T00641071  RH  037%=      5-min Rain = 0
KPG1 121745Z 05014KT 07/M07 A3024 RMK A01 T00651072  RH  037%=      5-min Rain = 0
KPG1 121746Z 04016KT 07/M07 A3024 RMK A01 T00651072  RH  037%=      5-min Rain = 0
KPG1 121747Z 04012KT 07/M07 A3024 RMK A01 T00651072  RH  037%=      5-min Rain = 0
KPG1 121748Z 03013KT 07/M07 A3024 RMK A01 T00661071  RH  037%=      5-min Rain = 0
KPG1 121749Z 04011KT 07/M07 A3024 RMK A01 T00661072  RH  037%=      5-min Rain = 0
KPG1 121750Z 05014KT 07/M07 A3024 RMK A01 T00681071  RH  037%=      5-min Rain = 0
KPG1 121751Z 04014KT 07/M07 A3024 RMK A01 T00681071  RH  036%=      5-min Rain = 0
KPG1 121752Z 03014KT 07/M07 A3024 RMK A01 T00661072  RH  037%=      5-min Rain = 0
KPG1 121753Z 04014KT 07/M07 A3024 RMK A01 T00661071  RH  037%=      5-min Rain = 0
KPG1 121754Z 04012KT 07/M07 A3024 RMK A01 T00661070  RH  037%=      5-min Rain = 0
KPG1 121755Z 04013KT 07/M07 A3024 RMK A01 T00671068  RH  037%=      5-min Rain = 0
KPG1 121756Z 04013KT 07/M07 A3024 RMK A01 T00681067  RH  038%=      5-min Rain = 0
KPG1 121757Z 05011KT 07/M07 A3024 RMK A01 T00681068  RH  037%=      5-min Rain = 0
KPG1 121758Z 05012KT 07/M07 A3024 RMK A01 T00711067  RH  037%=      5-min Rain = 0
KPG1 121759Z 05011KT 08/M07 A3024 RMK A01 T00761066  RH  036%=      5-min Rain = 0
KPG1 121800Z 05011KT 08/M07 A3024 RMK A01 T00751069  RH  035%=      5-min Rain = 0
KPG1 121801Z 05012KT 07/M07 A3024 RMK A01 T00741068  RH  036%=      5-min Rain = 0
KPG1 121802Z 05013KT 07/M07 A3024 RMK A01 T00721069  RH  036%=      5-min Rain = 0
KPG1 121803Z 06012KT 07/M07 A3024 RMK A01 T00701068  RH  037%=      5-min Rain = 0
KPG1 121804Z 04011KT 07/M07 A3024 RMK A01 T00701066  RH  037%=      5-min Rain = 0
KPG1 121805Z 03014KT 07/M06 A3024 RMK A01 T00731063  RH  037%=      5-min Rain = 0
KPG1 121806Z 03011KT 07/M07 A3023 RMK A01 T00721065  RH  037%=      5-min Rain = 0
KPG1 121807Z 03011G16KT 07/M07 A3023 RMK A01 T00721066  RH  037%=      5-min Rain = 0
KPG1 121808Z 03013KT 07/M07 A3023 RMK A01 T00721066  RH  037%=      5-min Rain = 0
KPG1 121809Z 03012KT 07/M06 A3023 RMK A01 T00721063  RH  037%=      5-min Rain = 0
KPG1 121810Z 03013KT 07/M06 A3023 RMK A01 T00731061  RH  038%=      5-min Rain = 0
KPG1 121811Z 04012KT 07/M06 A3023 RMK A01 T00741058  RH  039%=      5-min Rain = 0
KPG1 121812Z 03012KT 07/M06 A3023 RMK A01 T00741058  RH  038%=      5-min Rain = 0
KPG1 121813Z 04012KT 08/M06 A3023 RMK A01 T00751060  RH  038%=      5-min Rain = 0
KPG1 121814Z 04013KT 08/M06 A3023 RMK A01 T00781059  RH  037%=      5-min Rain = 0
KPG1 121815Z 04014KT 08/M06 A3023 RMK A01 T00781059  RH  037%=      5-min Rain = 0
KPG1 121816Z 03014KT 08/M06 A3023 RMK A01 T00771059  RH  037%=      5-min Rain = 0
KPG1 121817Z 04013KT 08/M06 A3023 RMK A01 T00751060  RH  038%=      5-min Rain = 0
KPG1 121818Z 04011KT 07/M06 A3023 RMK A01 T00741059  RH  038%=      5-min Rain = 0
KPG1 121819Z 05013KT 08/M06 A3023 RMK A01 T00751058  RH  038%=      5-min Rain = 0
KPG1 121820Z 05011KT 07/M06 A3023 RMK A01 T00741059  RH  038%=      5-min Rain = 0
KPG1 121821Z 06011KT 07/M06 A3022 RMK A01 T00741058  RH  039%=      5-min Rain = 0
KPG1 121822Z 03010KT 07/M06 A3022 RMK A01 T00741058  RH  039%=      5-min Rain = 0
KPG1 121823Z 03012KT 08/M06 A3022 RMK A01 T00751057  RH  039%=      5-min Rain = 0
KPG1 121824Z 04013KT 08/M06 A3022 RMK A01 T00761055  RH  039%=      5-min Rain = 0
KPG1 121825Z 04014KT 08/M06 A3022 RMK A01 T00761056  RH  038%=      5-min Rain = 0
KPG1 121826Z 03013KT 08/M06 A3022 RMK A01 T00751057  RH  039%=      5-min Rain = 0
KPG1 121827Z 04012KT 08/M05 A3022 RMK A01 T00771054  RH  039%=      5-min Rain = 0
KPG1 121828Z 03009KT 08/M06 A3022 RMK A01 T00791056  RH  038%=      5-min Rain = 0
KPG1 121829Z 03010KT 08/M06 A3022 RMK A01 T00801056  RH  038%=      5-min Rain = 0
KPG1 121830Z 03014KT 08/M06 A3022 RMK A01 T00841056  RH  037%=      5-min Rain = 0
KPG1 121831Z 05012KT 08/M06 A3022 RMK A01 T00831059  RH  036%=      5-min Rain = 0
KPG1 121832Z 04009KT 08/M06 A3022 RMK A01 T00801060  RH  037%=      5-min Rain = 0
KPG1 121833Z 03011KT 08/M06 A3022 RMK A01 T00781060  RH  037%=      5-min Rain = 0
KPG1 121834Z 04012KT 08/M06 A3022 RMK A01 T00811057  RH  037%=      5-min Rain = 0
KPG1 121835Z 04010KT 08/M06 A3022 RMK A01 T00831057  RH  037%=      5-min Rain = 0
KPG1 121836Z 03009KT 08/M06 A3021 RMK A01 T00821058  RH  037%=      5-min Rain = 0
KPG1 121837Z 04009KT 08/M06 A3021 RMK A01 T00831056  RH  037%=      5-min Rain = 0
KPG1 121838Z 04009KT 09/M06 A3021 RMK A01 T00851055  RH  037%=      5-min Rain = 0
KPG1 121839Z 04010KT 09/M06 A3021 RMK A01 T00871055  RH  036%=      5-min Rain = 0
KPG1 121840Z 04009KT 09/M06 A3021 RMK A01 T00851059  RH  036%=      5-min Rain = 0
KPG1 121841Z 04008KT 09/M06 A3021 RMK A01 T00851057  RH  036%=      5-min Rain = 0
KPG1 121842Z 06009KT 09/M06 A3021 RMK A01 T00891055  RH  036%=      5-min Rain = 0
KPG1 121843Z 05012KT 09/M06 A3021 RMK A01 T00911055  RH  035%=      5-min Rain = 0
KPG1 121844Z 05009KT 09/M06 A3021 RMK A01 T00881056  RH  036%=      5-min Rain = 0
KPG1 121845Z 05011KT 09/M06 A3021 RMK A01 T00861055  RH  037%=      5-min Rain = 0
KPG1 121846Z 04009KT 08/M06 A3021 RMK A01 T00831055  RH  037%=      5-min Rain = 0
KPG1 121847Z 03010KT 08/M05 A3021 RMK A01 T00821054  RH  038%=      5-min Rain = 0
KPG1 121848Z 04008KT 08/M05 A3021 RMK A01 T00841053  RH  037%=      5-min Rain = 0
KPG1 121849Z 04011KT 09/M05 A3021 RMK A01 T00901049  RH  037%=      5-min Rain = 0
KPG1 121850Z 02011KT 09/M05 A3021 RMK A01 T00901051  RH  037%=      5-min Rain = 0
KPG1 121851Z 02011KT 09/M05 A3021 RMK A01 T00861052  RH  037%=      5-min Rain = 0
KPG1 121852Z 04007G13KT 09/M05 A3021 RMK A01 T00871051  RH  037%=      5-min Rain = 0
KPG1 121853Z 05011KT 09/M05 A3021 RMK A01 T00891051  RH  037%=      5-min Rain = 0
KPG1 121854Z 08008KT 09/M06 A3021 RMK A01 T00871055  RH  036%=      5-min Rain = 0
KPG1 121855Z 07006KT 09/M06 A3021 RMK A01 T00861055  RH  036%=      5-min Rain = 0
KPG1 121856Z 05009KT 09/M05 A3021 RMK A01 T00891052  RH  036%=      5-min Rain = 0
KPG1 121857Z 05008KT 09/M05 A3021 RMK A01 T00911053  RH  036%=      5-min Rain = 0
KPG1 121858Z 03010KT 09/M05 A3021 RMK A01 T00911054  RH  036%=      5-min Rain = 0
KPG1 121859Z 03009KT 09/M05 A302 RMK A01 T00891054  RH  036%=      5-min Rain = 0
KPG1 121900Z 05009KT 09/M05 A302 RMK A01 T00901053  RH  036%=      5-min Rain = 0
KPG1 121901Z 05010KT 09/M05 A302 RMK A01 T00921051  RH  036%=      5-min Rain = 0
KPG1 121902Z 06011KT 10/M05 A302 RMK A01 T00951049  RH  036%=      5-min Rain = 0
KPG1 121903Z 05009KT 09/M05 A302 RMK A01 T00931053  RH  035%=      5-min Rain = 0
KPG1 121904Z 05008KT 09/M05 A302 RMK A01 T00931051  RH  036%=      5-min Rain = 0
KPG1 121905Z 05008KT 10/M05 A302 RMK A01 T00951051  RH  035%=      5-min Rain = 0
KPG1 121906Z 06007KT 10/M05 A302 RMK A01 T00981050  RH  035%=      5-min Rain = 0
KPG1 121907Z 04007KT 10/M05 A302 RMK A01 T00991051  RH  034%=      5-min Rain = 0
KPG1 121908Z 06010KT 10/M05 A302 RMK A01 T01011051  RH  034%=      5-min Rain = 0
KPG1 121909Z 07011KT 10/M05 A302 RMK A01 T01011053  RH  034%=      5-min Rain = 0
KPG1 121910Z 07009G14KT 10/M06 A3019 RMK A01 T00961056  RH  034%=      5-min Rain = 0
KPG1 121911Z 06010KT 10/M05 A3019 RMK A01 T00951054  RH  035%=      5-min Rain = 0
KPG1 121912Z 05008KT 10/M05 A3019 RMK A01 T00971052  RH  035%=      5-min Rain = 0
KPG1 121913Z 05010KT 10/M05 A3019 RMK A01 T01001051  RH  034%=      5-min Rain = 0
KPG1 121914Z 04012KT 10/M05 A3019 RMK A01 T00971053  RH  034%=      5-min Rain = 0
KPG1 121915Z 02013KT 10/M05 A3019 RMK A01 T00951052  RH  035%=      5-min Rain = 0
KPG1 121916Z 03011KT 09/M05 A3019 RMK A01 T00941051  RH  036%=      5-min Rain = 0
KPG1 121917Z 03013KT 10/M05 A3019 RMK A01 T00951049  RH  036%=      5-min Rain = 0
KPG1 121918Z 04012KT 09/M05 A3019 RMK A01 T00941049  RH  036%=      5-min Rain = 0
KPG1 121919Z 04012KT 09/M05 A3019 RMK A01 T00941048  RH  036%=      5-min Rain = 0
KPG1 121920Z 03011KT 10/M05 A3019 RMK A01 T00951046  RH  036%=      5-min Rain = 0
KPG1 121921Z 04009KT 10/M05 A3018 RMK A01 T00971047  RH  036%=      5-min Rain = 0
KPG1 121922Z 03008KT 10/M05 A3018 RMK A01 T00981047  RH  036%=      5-min Rain = 0
KPG1 121923Z 04009KT 10/M05 A3018 RMK A01 T01001046  RH  036%=      5-min Rain = 0
KPG1 121924Z 06009KT 10/M05 A3018 RMK A01 T01021045  RH  035%=      5-min Rain = 0
KPG1 121925Z 04010KT 10/M05 A3018 RMK A01 T01031046  RH  035%=      5-min Rain = 0
KPG1 121926Z 03012KT 10/M05 A3018 RMK A01 T01041046  RH  034%=      5-min Rain = 0
KPG1 121927Z 03011KT 10/M05 A3018 RMK A01 T01031049  RH  034%=      5-min Rain = 0
KPG1 121928Z 03009KT 10/M05 A3018 RMK A01 T01011050  RH  034%=      5-min Rain = 0
KPG1 121929Z 03013KT 10/M05 A3018 RMK A01 T01011048  RH  034%=      5-min Rain = 0
KPG1 121930Z 03011KT 10/M05 A3018 RMK A01 T01001051  RH  034%=      5-min Rain = 0
KPG1 121931Z 04011KT 10/M05 A3018 RMK A01 T00981051  RH  035%=      5-min Rain = 0
KPG1 121932Z 04008KT 10/M05 A3018 RMK A01 T00971050  RH  035%=      5-min Rain = 0
KPG1 121933Z 07006KT 10/M05 A3018 RMK A01 T00991049  RH  035%=      5-min Rain = 0
KPG1 121934Z 07011KT 10/M05 A3017 RMK A01 T01021048  RH  034%=      5-min Rain = 0
KPG1 121935Z 05008KT 10/M05 A3017 RMK A01 T01031048  RH  034%=      5-min Rain = 0
KPG1 121936Z 04008KT 10/M05 A3017 RMK A01 T01031050  RH  034%=      5-min Rain = 0
KPG1 121937Z 06009KT 10/M05 A3017 RMK A01 T01021049  RH  034%=      5-min Rain = 0
KPG1 121938Z 07008KT 11/M05 A3017 RMK A01 T01051048  RH  034%=      5-min Rain = 0
KPG1 121939Z 04007KT 11/M05 A3017 RMK A01 T01061047  RH  034%=      5-min Rain = 0
KPG1 121940Z 05007KT 11/M05 A3017 RMK A01 T01091046  RH  033%=      5-min Rain = 0
KPG1 121941Z 06009KT 11/M05 A3017 RMK A01 T01111045  RH  033%=      5-min Rain = 0
KPG1 121942Z 06009KT 11/M05 A3017 RMK A01 T01121046  RH  033%=      5-min Rain = 0
KPG1 121943Z 03008KT 11/M05 A3017 RMK A01 T01101046  RH  033%=      5-min Rain = 0
KPG1 121944Z 07010KT 11/M05 A3017 RMK A01 T01091047  RH  033%=      5-min Rain = 0
KPG1 121945Z 08009KT 11/M05 A3017 RMK A01 T01091047  RH  033%=      5-min Rain = 0
KPG1 121946Z 07009KT 11/M05 A3017 RMK A01 T01071048  RH  033%=      5-min Rain = 0
KPG1 121947Z 05009KT 11/M05 A3016 RMK A01 T01091045  RH  034%=      5-min Rain = 0
KPG1 121948Z 06009KT 11/M05 A3016 RMK A01 T01121045  RH  033%=      5-min Rain = 0
KPG1 121949Z 06010KT 11/M05 A3016 RMK A01 T01121045  RH  033%=      5-min Rain = 0
KPG1 121950Z 07012KT 11/M05 A3016 RMK A01 T01101048  RH  033%=      5-min Rain = 0
KPG1 121951Z 08011KT 10/M05 A3016 RMK A01 T01041050  RH  033%=      5-min Rain = 0
KPG1 121952Z 06007KT 10/M05 A3016 RMK A01 T01011050  RH  034%=      5-min Rain = 0
KPG1 121953Z 08009KT 10/M05 A3016 RMK A01 T01031047  RH  035%=      5-min Rain = 0
KPG1 121954Z 07010KT 11/M05 A3016 RMK A01 T01061046  RH  034%=      5-min Rain = 0
KPG1 121955Z 04010KT 11/M05 A3016 RMK A01 T01101045  RH  033%=      5-min Rain = 0
KPG1 121956Z 06010KT 11/M05 A3016 RMK A01 T01081048  RH  033%=      5-min Rain = 0
KPG1 121957Z 05008KT 11/M05 A3016 RMK A01 T01061047  RH  034%=      5-min Rain = 0
KPG1 121958Z 03011KT 11/M05 A3016 RMK A01 T01081045  RH  034%=      5-min Rain = 0
KPG1 121959Z 04013KT 11/M05 A3016 RMK A01 T01081046  RH  034%=      5-min Rain = 0
KPG1 122000Z 03011KT 11/M05 A3016 RMK A01 T01081046  RH  034%=      5-min Rain = 0
KPG1 122001Z 05009KT 11/M05 A3016 RMK A01 T01071047  RH  034%=      5-min Rain = 0
KPG1 122002Z 04011KT 11/M05 A3016 RMK A01 T01051047  RH  034%=      5-min Rain = 0
KPG1 122003Z 03010KT 11/M05 A3016 RMK A01 T01051046  RH  034%=      5-min Rain = 0
KPG1 122004Z 03009KT 10/M05 A3015 RMK A01 T01031047  RH  034%=      5-min Rain = 0
KPG1 122005Z 03009KT 11/M04 A3015 RMK A01 T01051044  RH  035%=      5-min Rain = 0
KPG1 122006Z 02012KT 11/M04 A3015 RMK A01 T01091043  RH  034%=      5-min Rain = 0
KPG1 122007Z 01009KT 11/M05 A3015 RMK A01 T01081045  RH  034%=      5-min Rain = 0
KPG1 122008Z 00010KT 11/M05 A3015 RMK A01 T01081045  RH  034%=      5-min Rain = 0
KPG1 122009Z 01012KT 11/M04 A3015 RMK A01 T01081044  RH  034%=      5-min Rain = 0
KPG1 122010Z 03011KT 11/M05 A3015 RMK A01 T01081045  RH  034%=      5-min Rain = 0
KPG1 122011Z 04010KT 11/M05 A3015 RMK A01 T01071045  RH  034%=      5-min Rain = 0
KPG1 122012Z 06010KT 11/M04 A3015 RMK A01 T01111042  RH  034%=      5-min Rain = 0
KPG1 122013Z 04010KT 11/M04 A3015 RMK A01 T01131043  RH  033%=      5-min Rain = 0
KPG1 122014Z 02009KT 12/M04 A3015 RMK A01 T01151041  RH  033%=      5-min Rain = 0
KPG1 122015Z 03010KT 11/M04 A3015 RMK A01 T01141043  RH  033%=      5-min Rain = 0
KPG1 122016Z 03010KT 11/M04 A3015 RMK A01 T01121043  RH  033%=      5-min Rain = 0
KPG1 122017Z 04009KT 11/M04 A3015 RMK A01 T01121043  RH  034%=      5-min Rain = 0
KPG1 122018Z 05011KT 11/M04 A3015 RMK A01 T01131043  RH  033%=      5-min Rain = 0
KPG1 122019Z 04009KT 11/M04 A3015 RMK A01 T01111044  RH  033%=      5-min Rain = 0
KPG1 122020Z 03006KT 11/M04 A3015 RMK A01 T01131041  RH  034%=      5-min Rain = 0
KPG1 122021Z 04008KT 12/M04 A3014 RMK A01 T01181039  RH  033%=      5-min Rain = 0
KPG1 122022Z 05009KT 12/M04 A3014 RMK A01 T01201041  RH  032%=      5-min Rain = 0
KPG1 122023Z 07008KT 12/M04 A3014 RMK A01 T01171043  RH  032%=      5-min Rain = 0
KPG1 122024Z 06009KT 12/M04 A3014 RMK A01 T01191041  RH  032%=      5-min Rain = 0
KPG1 122025Z 06008KT 12/M04 A3014 RMK A01 T01191042  RH  032%=      5-min Rain = 0
KPG1 122026Z 07008KT 12/M04 A3014 RMK A01 T01201041  RH  032%=      5-min Rain = 0
KPG1 122027Z 08008KT 12/M04 A3014 RMK A01 T01211040  RH  032%=      5-min Rain = 0
KPG1 122028Z 05008KT 12/M04 A3014 RMK A01 T01211041  RH  032%=      5-min Rain = 0
KPG1 122029Z 02009KT 12/M04 A3014 RMK A01 T01191042  RH  032%=      5-min Rain = 0
KPG1 122030Z 02010KT 12/M04 A3013 RMK A01 T01181041  RH  033%=      5-min Rain = 0
KPG1 122031Z 02009KT 12/M04 A3013 RMK A01 T01171042  RH  033%=      5-min Rain = 0
KPG1 122032Z 03010KT 12/M04 A3013 RMK A01 T01171041  RH  033%=      5-min Rain = 0
KPG1 122033Z 05011KT 12/M04 A3013 RMK A01 T01171041  RH  033%=      5-min Rain = 0
KPG1 122034Z 06009KT 12/M04 A3013 RMK A01 T01181041  RH  033%=      5-min Rain = 0
KPG1 122035Z 07009KT 12/M04 A3013 RMK A01 T01201039  RH  033%=      5-min Rain = 0
KPG1 122036Z 05010KT 12/M04 A3013 RMK A01 T01221040  RH  032%=      5-min Rain = 0
KPG1 122037Z 05011KT 12/M04 A3013 RMK A01 T01181042  RH  032%=      5-min Rain = 0
KPG1 122038Z 07012KT 12/M04 A3013 RMK A01 T01161042  RH  033%=      5-min Rain = 0
KPG1 122039Z 07011KT 12/M04 A3013 RMK A01 T01161041  RH  033%=      5-min Rain = 0
KPG1 122040Z 07010KT 12/M04 A3013 RMK A01 T01191039  RH  033%=      5-min Rain = 0
KPG1 122041Z 05011KT 12/M04 A3013 RMK A01 T01191041  RH  032%=      5-min Rain = 0
KPG1 122042Z 04011KT 12/M04 A3013 RMK A01 T01191041  RH  033%=      5-min Rain = 0
KPG1 122043Z 03012KT 12/M04 A3013 RMK A01 T01201040  RH  033%=      5-min Rain = 0
KPG1 122044Z 03009KT 12/M04 A3013 RMK A01 T01171043  RH  032%=      5-min Rain = 0
KPG1 122045Z 04011KT 12/M04 A3013 RMK A01 T01161041  RH  033%=      5-min Rain = 0
KPG1 122046Z 03010KT 12/M04 A3013 RMK A01 T01181040  RH  033%=      5-min Rain = 0
KPG1 122047Z 04010G15KT 12/M04 A3013 RMK A01 T01191041  RH  032%=      5-min Rain = 0
KPG1 122048Z 04015KT 12/M04 A3013 RMK A01 T01181042  RH  032%=      5-min Rain = 0
KPG1 122049Z 04012KT 12/M04 A3013 RMK A01 T01171043  RH  032%=      5-min Rain = 0
KPG1 122050Z 03011KT 12/M04 A3013 RMK A01 T01161042  RH  033%=      5-min Rain = 0
KPG1 122051Z 03008KT 12/M04 A3013 RMK A01 T01151043  RH  033%=      5-min Rain = 0
KPG1 122052Z 03009G14KT 12/M04 A3012 RMK A01 T01161040  RH  033%=      5-min Rain = 0
KPG1 122053Z 03012KT 12/M04 A3012 RMK A01 T01221038  RH  033%=      5-min Rain = 0
KPG1 122054Z 05012KT 12/M04 A3012 RMK A01 T01231039  RH  032%=      5-min Rain = 0
KPG1 122055Z 05008KT 12/M04 A3012 RMK A01 T01191043  RH  032%=      5-min Rain = 0
KPG1 122056Z 03011KT 12/M04 A3012 RMK A01 T01201039  RH  033%=      5-min Rain = 0
KPG1 122057Z 03014KT 12/M04 A3012 RMK A01 T01231038  RH  032%=      5-min Rain = 0
KPG1 122058Z 05012KT 12/M04 A3012 RMK A01 T01231040  RH  032%=      5-min Rain = 0
KPG1 122059Z 04009KT 12/M04 A3012 RMK A01 T01191041  RH  032%=      5-min Rain = 0
KPG1 122100Z 04014KT 12/M04 A3012 RMK A01 T01181040  RH  033%=      5-min Rain = 0
KPG1 122101Z 04011KT 12/M04 A3012 RMK A01 T01181040  RH  033%=      5-min Rain = 0
KPG1 122102Z 05009KT 12/M04 A3012 RMK A01 T01191039  RH  033%=      5-min Rain = 0
KPG1 122103Z 05011KT 12/M04 A3012 RMK A01 T01221037  RH  033%=      5-min Rain = 0
KPG1 122104Z 05012KT 13/M04 A3012 RMK A01 T01251037  RH  032%=      5-min Rain = 0
KPG1 122105Z 04012KT 12/M04 A3012 RMK A01 T01231040  RH  032%=      5-min Rain = 0
KPG1 122106Z 03011KT 12/M04 A3012 RMK A01 T01211040  RH  032%=      5-min Rain = 0
KPG1 122107Z 03013KT 12/M04 A3012 RMK A01 T01221038  RH  032%=      5-min Rain = 0
KPG1 122108Z 05010KT 12/M04 A3012 RMK A01 T01221039  RH  032%=      5-min Rain = 0
KPG1 122109Z 06010KT 12/M04 A3012 RMK A01 T01211040  RH  032%=      5-min Rain = 0
KPG1 122110Z 04011KT 12/M04 A3012 RMK A01 T01241038  RH  032%=      5-min Rain = 0
KPG1 122111Z 04013KT 13/M04 A3012 RMK A01 T01261039  RH  032%=      5-min Rain = 0
KPG1 122112Z 05009KT 12/M04 A3012 RMK A01 T01241040  RH  032%=      5-min Rain = 0
KPG1 122113Z 04011KT 12/M04 A3012 RMK A01 T01241038  RH  032%=      5-min Rain = 0
KPG1 122114Z 05012KT 12/M04 A3012 RMK A01 T01231039  RH  032%=      5-min Rain = 0
KPG1 122115Z 05012KT 12/M04 A3012 RMK A01 T01221039  RH  032%=      5-min Rain = 0
KPG1 122116Z 05010KT 12/M04 A3012 RMK A01 T01221040  RH  032%=      5-min Rain = 0
KPG1 122117Z 05008KT 12/M04 A3012 RMK A01 T01241038  RH  032%=      5-min Rain = 0
KPG1 122118Z 05011KT 13/M04 A3012 RMK A01 T01281038  RH  031%=      5-min Rain = 0
KPG1 122119Z 04011KT 13/M04 A3012 RMK A01 T01261040  RH  031%=      5-min Rain = 0
KPG1 122120Z 03010KT 12/M04 A3012 RMK A01 T01231041  RH  032%=      5-min Rain = 0
KPG1 122121Z 04011KT 12/M04 A3012 RMK A01 T01231041  RH  032%=      5-min Rain = 0
KPG1 122122Z 05014KT 12/M04 A3011 RMK A01 T01221041  RH  032%=      5-min Rain = 0
KPG1 122123Z 04012KT 12/M04 A3011 RMK A01 T01231041  RH  032%=      5-min Rain = 0
KPG1 122124Z 04011KT 12/M04 A3011 RMK A01 T01241041  RH  031%=      5-min Rain = 0
KPG1 122125Z 03011KT 12/M04 A3011 RMK A01 T01241041  RH  031%=      5-min Rain = 0
KPG1 122126Z 03012KT 12/M04 A3011 RMK A01 T01241042  RH  031%=      5-min Rain = 0
KPG1 122127Z 05013KT 13/M04 A3011 RMK A01 T01251041  RH  031%=      5-min Rain = 0
KPG1 122128Z 05012KT 12/M04 A3011 RMK A01 T01241042  RH  031%=      5-min Rain = 0
KPG1 122129Z 03014KT 12/M04 A3011 RMK A01 T01241042  RH  031%=      5-min Rain = 0
KPG1 122130Z 03012KT 12/M04 A3011 RMK A01 T01241041  RH  031%=      5-min Rain = 0
KPG1 122131Z 04013KT 13/M04 A3011 RMK A01 T01261041  RH  031%=      5-min Rain = 0
KPG1 122132Z 04011KT 13/M04 A3011 RMK A01 T01261041  RH  031%=      5-min Rain = 0
KPG1 122133Z 03013KT 13/M04 A3011 RMK A01 T01261040  RH  031%=      5-min Rain = 0
KPG1 122134Z 03011KT 13/M04 A3011 RMK A01 T01281040  RH  031%=      5-min Rain = 0
KPG1 122135Z 05010KT 13/M04 A3011 RMK A01 T01301040  RH  030%=      5-min Rain = 0
KPG1 122136Z 04012KT 13/M04 A3011 RMK A01 T01311040  RH  030%=      5-min Rain = 0
KPG1 122137Z 05010KT 13/M04 A3011 RMK A01 T01281042  RH  030%=      5-min Rain = 0
KPG1 122138Z 05012KT 13/M04 A3011 RMK A01 T01271041  RH  031%=      5-min Rain = 0
KPG1 122139Z 05012KT 13/M04 A3011 RMK A01 T01291040  RH  031%=      5-min Rain = 0
KPG1 122140Z 05011KT 13/M04 A3011 RMK A01 T01311039  RH  030%=      5-min Rain = 0
KPG1 122141Z 03009KT 13/M04 A3011 RMK A01 T01321040  RH  030%=      5-min Rain = 0
KPG1 122142Z 03012KT 13/M04 A3011 RMK A01 T01331040  RH  030%=      5-min Rain = 0
KPG1 122143Z 03010KT 13/M04 A3011 RMK A01 T01301042  RH  030%=      5-min Rain = 0
KPG1 122144Z 03013KT 13/M04 A3011 RMK A01 T01301040  RH  030%=      5-min Rain = 0
KPG1 122145Z 03015KT 13/M04 A3011 RMK A01 T01301041  RH  030%=      5-min Rain = 0
KPG1 122146Z 04017KT 13/M04 A3011 RMK A01 T01291041  RH  030%=      5-min Rain = 0
KPG1 122147Z 05014KT 13/M04 A3011 RMK A01 T01261042  RH  031%=      5-min Rain = 0
KPG1 122148Z 03014KT 12/M04 A3011 RMK A01 T01231042  RH  031%=      5-min Rain = 0
KPG1 122149Z 04013KT 12/M04 A3011 RMK A01 T01241040  RH  032%=      5-min Rain = 0
KPG1 122150Z 03015KT 13/M04 A3011 RMK A01 T01251039  RH  032%=      5-min Rain = 0
KPG1 122151Z 03014G19KT 13/M04 A301 RMK A01 T01261039  RH  031%=      5-min Rain = 0
KPG1 122152Z 03014KT 13/M04 A3011 RMK A01 T01271039  RH  031%=      5-min Rain = 0
KPG1 122153Z 03015KT 13/M04 A3011 RMK A01 T01271039  RH  031%=      5-min Rain = 0
KPG1 122154Z 03013KT 13/M04 A3011 RMK A01 T01271040  RH  031%=      5-min Rain = 0
KPG1 122155Z 04013KT 13/M04 A3011 RMK A01 T01261039  RH  031%=      5-min Rain = 0
KPG1 122156Z 04016KT 13/M04 A3011 RMK A01 T01271039  RH  031%=      5-min Rain = 0
KPG1 122157Z 03014KT 13/M04 A3011 RMK A01 T01261040  RH  031%=      5-min Rain = 0
KPG1 122158Z 04012KT 13/M04 A3011 RMK A01 T01271039  RH  031%=      5-min Rain = 0
KPG1 122159Z 03013KT 13/M04 A3011 RMK A01 T01271040  RH  031%=      5-min Rain = 0
KPG1 122200Z 03016KT 13/M04 A3011 RMK A01 T01291039  RH  031%=      5-min Rain = 0
KPG1 122201Z 03013KT 13/M04 A3011 RMK A01 T01301039  RH  031%=      5-min Rain = 0
KPG1 122202Z 04014KT 13/M04 A3011 RMK A01 T01321038  RH  030%=      5-min Rain = 0
KPG1 122203Z 06011KT 14/M04 A3011 RMK A01 T01351038  RH  030%=      5-min Rain = 0
KPG1 122204Z 06012KT 14/M04 A3011 RMK A01 T01361038  RH  030%=      5-min Rain = 0
KPG1 122205Z 05013KT 13/M04 A3011 RMK A01 T01341040  RH  030%=      5-min Rain = 0
KPG1 122206Z 04010KT 13/M04 A3011 RMK A01 T01301042  RH  030%=      5-min Rain = 0
KPG1 122207Z 04007KT 13/M04 A3011 RMK A01 T01291040  RH  031%=      5-min Rain = 0
KPG1 122208Z 04010KT 13/M04 A3011 RMK A01 T01331037  RH  030%=      5-min Rain = 0
KPG1 122209Z 04012KT 14/M04 A3011 RMK A01 T01351038  RH  030%=      5-min Rain = 0
KPG1 122210Z 04014KT 13/M04 A3011 RMK A01 T01341040  RH  030%=      5-min Rain = 0
KPG1 122211Z 03015G20KT 13/M04 A3011 RMK A01 T01321040  RH  030%=      5-min Rain = 0
KPG1 122212Z 03017KT 13/M04 A3011 RMK A01 T01321039  RH  030%=      5-min Rain = 0
KPG1 122213Z 03016KT 13/M04 A3011 RMK A01 T01311039  RH  030%=      5-min Rain = 0
KPG1 122214Z 03017KT 13/M04 A3011 RMK A01 T01301039  RH  031%=      5-min Rain = 0
KPG1 122215Z 03013G18KT 13/M04 A3011 RMK A01 T01301039  RH  031%=      5-min Rain = 0
KPG1 122216Z 03013KT 13/M04 A3011 RMK A01 T01291039  RH  031%=      5-min Rain = 0
KPG1 122217Z 04012G18KT 13/M04 A3011 RMK A01 T01311038  RH  031%=      5-min Rain = 0
KPG1 122218Z 04015KT 13/M04 A3011 RMK A01 T01341037  RH  030%=      5-min Rain = 0
KPG1 122219Z 05013KT 14/M04 A3011 RMK A01 T01351037  RH  030%=      5-min Rain = 0
KPG1 122220Z 04014KT 13/M04 A3011 RMK A01 T01341038  RH  030%=      5-min Rain = 0
KPG1 122221Z 04013KT 13/M04 A3011 RMK A01 T01341038  RH  030%=      5-min Rain = 0
KPG1 122222Z 03014KT 13/M04 A3011 RMK A01 T01341038  RH  030%=      5-min Rain = 0
KPG1 122223Z 04016KT 14/M04 A3011 RMK A01 T01351038  RH  030%=      5-min Rain = 0
KPG1 122224Z 03016KT 13/M04 A3011 RMK A01 T01321040  RH  030%=      5-min Rain = 0
KPG1 122225Z 03012KT 13/M04 A3011 RMK A01 T01301040  RH  030%=      5-min Rain = 0
KPG1 122226Z 03015KT 13/M04 A3011 RMK A01 T01301039  RH  031%=      5-min Rain = 0
KPG1 122227Z 03013KT 13/M04 A3011 RMK A01 T01291039  RH  031%=      5-min Rain = 0
KPG1 122228Z 03016KT 13/M04 A3011 RMK A01 T01291039  RH  031%=      5-min Rain = 0
KPG1 122229Z 03016G21KT 13/M04 A301 RMK A01 T01311038  RH  031%=      5-min Rain = 0
KPG1 122230Z 04014G19KT 13/M04 A3011 RMK A01 T01331038  RH  030%=      5-min Rain = 0
KPG1 122231Z 04014KT 13/M04 A3011 RMK A01 T01311039  RH  030%=      5-min Rain = 0
KPG1 122232Z 04013KT 13/M04 A3011 RMK A01 T01311039  RH  031%=      5-min Rain = 0
KPG1 122233Z 05013KT 13/M04 A3011 RMK A01 T01301039  RH  031%=      5-min Rain = 0
KPG1 122234Z 02015KT 13/M04 A301 RMK A01 T01301038  RH  031%=      5-min Rain = 0
KPG1 122235Z 03015KT 13/M04 A3011 RMK A01 T01311039  RH  030%=      5-min Rain = 0
KPG1 122236Z 04015KT 13/M04 A3011 RMK A01 T01311039  RH  030%=      5-min Rain = 0
KPG1 122237Z 03013KT 13/M04 A3011 RMK A01 T01301039  RH  030%=      5-min Rain = 0
KPG1 122238Z 03013KT 13/M04 A3011 RMK A01 T01301039  RH  031%=      5-min Rain = 0
KPG1 122239Z 03014KT 13/M04 A3011 RMK A01 T01321038  RH  031%=      5-min Rain = 0
KPG1 122240Z 03015KT 13/M04 A301 RMK A01 T01341037  RH  030%=      5-min Rain = 0
KPG1 122241Z 04016KT 13/M04 A3011 RMK A01 T01341038  RH  030%=      5-min Rain = 0
KPG1 122242Z 04014KT 13/M04 A3011 RMK A01 T01321040  RH  030%=      5-min Rain = 0
KPG1 122243Z 03014KT 13/M04 A301 RMK A01 T01311039  RH  030%=      5-min Rain = 0
KPG1 122244Z 03018KT 13/M04 A3011 RMK A01 T01321039  RH  030%=      5-min Rain = 0
KPG1 122245Z 04016KT 13/M04 A3011 RMK A01 T01311039  RH  030%=      5-min Rain = 0
KPG1 122246Z 03015KT 13/M04 A3011 RMK A01 T01301039  RH  031%=      5-min Rain = 0
KPG1 122247Z 04014KT 13/M04 A3011 RMK A01 T01301039  RH  031%=      5-min Rain = 0
KPG1 122248Z 04014KT 13/M04 A3011 RMK A01 T01311038  RH  031%=      5-min Rain = 0
KPG1 122249Z 04016KT 13/M04 A3011 RMK A01 T01311039  RH  030%=      5-min Rain = 0
KPG1 122250Z 03016KT 13/M04 A301 RMK A01 T01311039  RH  030%=      5-min Rain = 0
KPG1 122251Z 02016KT 13/M04 A301 RMK A01 T01311038  RH  031%=      5-min Rain = 0
KPG1 122252Z 03017KT 13/M04 A301 RMK A01 T01331038  RH  030%=      5-min Rain = 0
KPG1 122253Z 03017KT 13/M04 A301 RMK A01 T01321039  RH  030%=      5-min Rain = 0
KPG1 122254Z 03016KT 13/M04 A301 RMK A01 T01311039  RH  030%=      5-min Rain = 0
KPG1 122255Z 02016KT 13/M04 A301 RMK A01 T01311038  RH  031%=      5-min Rain = 0
KPG1 122256Z 02014KT 13/M04 A301 RMK A01 T01321038  RH  030%=      5-min Rain = 0
KPG1 122257Z 02016KT 13/M04 A301 RMK A01 T01331038  RH  030%=      5-min Rain = 0
KPG1 122258Z 04019KT 13/M04 A301 RMK A01 T01341038  RH  030%=      5-min Rain = 0
KPG1 122259Z 04015KT 13/M04 A301 RMK A01 T01331039  RH  030%=      5-min Rain = 0
KPG1 122300Z 04017KT 13/M04 A301 RMK A01 T01331039  RH  030%=      5-min Rain = 0
KPG1 122301Z 03017KT 13/M04 A301 RMK A01 T01321039  RH  030%=      5-min Rain = 0
KPG1 122302Z 02015KT 13/M04 A301 RMK A01 T01311039  RH  030%=      5-min Rain = 0
KPG1 122303Z 03015G20KT 13/M04 A301 RMK A01 T01311039  RH  030%=      5-min Rain = 0
KPG1 122304Z 04018KT 13/M04 A301 RMK A01 T01321039  RH  030%=      5-min Rain = 0
KPG1 122305Z 04020KT 13/M04 A301 RMK A01 T01321039  RH  030%=      5-min Rain = 0
KPG1 122306Z 04021KT 13/M04 A301 RMK A01 T01311039  RH  030%=      5-min Rain = 0
KPG1 122307Z 04020KT 13/M04 A301 RMK A01 T01301040  RH  030%=      5-min Rain = 0
KPG1 122308Z 04019KT 13/M04 A301 RMK A01 T01301040  RH  030%=      5-min Rain = 0
KPG1 122309Z 03018KT 13/M04 A301 RMK A01 T01301040  RH  031%=      5-min Rain = 0
KPG1 122310Z 04018KT 13/M04 A301 RMK A01 T01301039  RH  030%=      5-min Rain = 0
KPG1 122311Z 04019KT 13/M04 A301 RMK A01 T01301040  RH  030%=      5-min Rain = 0
KPG1 122312Z 03017KT 13/M04 A301 RMK A01 T01301040  RH  030%=      5-min Rain = 0
KPG1 122313Z 04018KT 13/M04 A301 RMK A01 T01301039  RH  030%=      5-min Rain = 0
KPG1 122314Z 04019KT 13/M04 A301 RMK A01 T01301040  RH  030%=      5-min Rain = 0
KPG1 122315Z 04019KT 13/M04 A301 RMK A01 T01291040  RH  031%=      5-min Rain = 0
KPG1 122316Z 04020KT 13/M04 A301 RMK A01 T01291040  RH  031%=      5-min Rain = 0
KPG1 122317Z 04019KT 13/M04 A301 RMK A01 T01291040  RH  031%=      5-min Rain = 0
KPG1 122318Z 04016G22KT 13/M04 A301 RMK A01 T01281040  RH  031%=      5-min Rain = 0
KPG1 122319Z 03018KT 13/M04 A301 RMK A01 T01281039  RH  031%=      5-min Rain = 0
KPG1 122320Z 04020KT 13/M04 A301 RMK A01 T01301039  RH  031%=      5-min Rain = 0
KPG1 122321Z 04019KT 13/M04 A301 RMK A01 T01291040  RH  031%=      5-min Rain = 0
KPG1 122322Z 04020KT 13/M04 A301 RMK A01 T01281041  RH  031%=      5-min Rain = 0
KPG1 122323Z 04018KT 13/M04 A301 RMK A01 T01281040  RH  031%=      5-min Rain = 0
KPG1 122324Z 04018KT 13/M04 A301 RMK A01 T01281041  RH  031%=      5-min Rain = 0
KPG1 122325Z 04018KT 13/M04 A301 RMK A01 T01281041  RH  031%=      5-min Rain = 0
KPG1 122326Z 04018KT 13/M04 A301 RMK A01 T01281040  RH  031%=      5-min Rain = 0
KPG1 122327Z 04019KT 13/M04 A301 RMK A01 T01281040  RH  031%=      5-min Rain = 0
KPG1 122328Z 04019KT 13/M04 A301 RMK A01 T01281041  RH  031%=      5-min Rain = 0
KPG1 122329Z 04021KT 13/M04 A301 RMK A01 T01271041  RH  031%=      5-min Rain = 0
KPG1 122330Z 03019KT 13/M04 A301 RMK A01 T01271042  RH  031%=      5-min Rain = 0
KPG1 122331Z 04016KT 13/M04 A301 RMK A01 T01261042  RH  031%=      5-min Rain = 0
KPG1 122332Z 04018KT 13/M04 A301 RMK A01 T01271042  RH  031%=      5-min Rain = 0
KPG1 122333Z 04020G25KT 13/M04 A301 RMK A01 T01271042  RH  031%=      5-min Rain = 0
KPG1 122334Z 04019KT 13/M04 A301 RMK A01 T01261043  RH  031%=      5-min Rain = 0
KPG1 122335Z 04020KT 12/M04 A301 RMK A01 T01241043  RH  031%=      5-min Rain = 0
KPG1 122336Z 04021KT 12/M04 A301 RMK A01 T01231043  RH  031%=      5-min Rain = 0
KPG1 122337Z 04020KT 12/M04 A301 RMK A01 T01231043  RH  031%=      5-min Rain = 0
KPG1 122338Z 03021KT 12/M04 A301 RMK A01 T01221043  RH  031%=      5-min Rain = 0
KPG1 122339Z 03019KT 12/M04 A301 RMK A01 T01221043  RH  031%=      5-min Rain = 0
KPG1 122340Z 03020KT 12/M04 A301 RMK A01 T01221044  RH  031%=      5-min Rain = 0
KPG1 122341Z 03020KT 12/M04 A301 RMK A01 T01231044  RH  031%=      5-min Rain = 0
KPG1 122342Z 03018KT 12/M04 A301 RMK A01 T01231044  RH  031%=      5-min Rain = 0
KPG1 122343Z 03017KT 12/M04 A301 RMK A01 T01221044  RH  031%=      5-min Rain = 0
KPG1 122344Z 03016KT 12/M04 A3011 RMK A01 T01231044  RH  031%=      5-min Rain = 0
KPG1 122345Z 03018G23KT 12/M04 A3011 RMK A01 T01231044  RH  031%=      5-min Rain = 0
KPG1 122346Z 03022KT 12/M04 A3011 RMK A01 T01231044  RH  031%=      5-min Rain = 0
KPG1 122347Z 03020KT 12/M05 A3011 RMK A01 T01221045  RH  031%=      5-min Rain = 0
KPG1 122348Z 03019KT 12/M05 A3011 RMK A01 T01211045  RH  031%=      5-min Rain = 0
KPG1 122349Z 04018KT 12/M05 A3011 RMK A01 T01211045  RH  031%=      5-min Rain = 0
KPG1 122350Z 04019KT 12/M04 A3011 RMK A01 T01211044  RH  031%=      5-min Rain = 0
KPG1 122351Z 04019KT 12/M05 A3011 RMK A01 T01211045  RH  031%=      5-min Rain = 0
KPG1 122352Z 04020KT 12/M05 A3011 RMK A01 T01211045  RH  031%=      5-min Rain = 0
KPG1 122353Z 04023KT 12/M05 A3011 RMK A01 T01201045  RH  031%=      5-min Rain = 0
KPG1 122354Z 04022KT 12/M05 A3011 RMK A01 T01201045  RH  031%=      5-min Rain = 0
KPG1 122355Z 04021KT 12/M05 A3011 RMK A01 T01191045  RH  031%=      5-min Rain = 0
KPG1 122356Z 04020KT 12/M05 A3011 RMK A01 T01191045  RH  032%=      5-min Rain = 0
KPG1 122357Z 04018KT 12/M05 A3011 RMK A01 T01181045  RH  032%=      5-min Rain = 0
KPG1 122358Z 03019KT 12/M05 A3011 RMK A01 T01181045  RH  032%=      5-min Rain = 0
KPG1 122359Z 03019KT 12/M05 A3011 RMK A01 T01181045  RH  032%=      5-min Rain = 0
KPG1 130000Z 04020KT 12/M05 A3011 RMK A01 T01181045  RH  032%=      5-min Rain = 0
KPG1 130001Z 04022KT 12/M05 A3011 RMK A01 T01181045  RH  032%=      5-min Rain = 0
KPG1 130002Z 04018KT 12/M05 A3011 RMK A01 T01171045  RH  032%=      5-min Rain = 0
KPG1 130003Z 04021KT 12/M05 A3011 RMK A01 T01171045  RH  032%=      5-min Rain = 0
KPG1 130004Z 04021KT 12/M05 A3011 RMK A01 T01171045  RH  032%=      5-min Rain = 0
KPG1 130005Z 03023KT 12/M05 A3011 RMK A01 T01161045  RH  032%=      5-min Rain = 0
KPG1 130006Z 03020KT 12/M05 A3011 RMK A01 T01161045  RH  032%=      5-min Rain = 0
KPG1 130007Z 04022KT 12/M05 A3011 RMK A01 T01161045  RH  032%=      5-min Rain = 0
KPG1 130008Z 03022KT 12/M05 A3011 RMK A01 T01151045  RH  032%=      5-min Rain = 0
KPG1 130009Z 03021KT 12/M05 A3011 RMK A01 T01151045  RH  032%=      5-min Rain = 0
KPG1 130010Z 03020KT 11/M05 A3011 RMK A01 T01141046  RH  032%=      5-min Rain = 0
KPG1 130011Z 03020KT 11/M05 A3011 RMK A01 T01141045  RH  033%=      5-min Rain = 0
KPG1 130012Z 03021KT 11/M05 A3011 RMK A01 T01131045  RH  033%=      5-min Rain = 0
KPG1 130013Z 03019KT 11/M05 A3011 RMK A01 T01131045  RH  033%=      5-min Rain = 0
KPG1 130014Z 03021KT 11/M05 A3011 RMK A01 T01131045  RH  033%=      5-min Rain = 0
KPG1 130015Z 03020KT 11/M05 A3011 RMK A01 T01131045  RH  033%=      5-min Rain = 0
KPG1 130016Z 03021KT 11/M05 A3011 RMK A01 T01121045  RH  033%=      5-min Rain = 0
KPG1 130017Z 03019KT 11/M05 A3011 RMK A01 T01121045  RH  033%=      5-min Rain = 0
KPG1 130018Z 03023KT 11/M05 A3011 RMK A01 T01121045  RH  033%=      5-min Rain = 0
KPG1 130019Z 03021KT 11/M04 A3011 RMK A01 T01111044  RH  033%=      5-min Rain = 0
KPG1 130020Z 03020G26KT 11/M04 A3011 RMK A01 T01111044  RH  033%=      5-min Rain = 0
KPG1 130021Z 03021KT 11/M04 A3011 RMK A01 T01101044  RH  033%=      5-min Rain = 0
KPG1 130022Z 03022KT 11/M04 A3011 RMK A01 T01101044  RH  034%=      5-min Rain = 0
KPG1 130023Z 04019KT 11/M04 A3011 RMK A01 T01101044  RH  034%=      5-min Rain = 0
KPG1 130024Z 04021KT 11/M04 A3011 RMK A01 T01091044  RH  034%=      5-min Rain = 0
KPG1 130025Z 04021KT 11/M04 A3011 RMK A01 T01091044  RH  034%=      5-min Rain = 0
KPG1 130026Z 04020KT 11/M04 A3011 RMK A01 T01091044  RH  034%=      5-min Rain = 0
KPG1 130027Z 04022KT 11/M04 A3011 RMK A01 T01091044  RH  034%=      5-min Rain = 0
KPG1 130028Z 04020KT 11/M04 A3011 RMK A01 T01091044  RH  034%=      5-min Rain = 0
KPG1 130029Z 03020KT 11/M04 A3011 RMK A01 T01081044  RH  034%=      5-min Rain = 0
KPG1 130030Z 03022KT 11/M04 A3011 RMK A01 T01071044  RH  034%=      5-min Rain = 0
KPG1 130031Z 04020KT 11/M04 A3011 RMK A01 T01071044  RH  034%=      5-min Rain = 0
KPG1 130032Z 04020KT 11/M05 A3011 RMK A01 T01061045  RH  034%=      5-min Rain = 0
KPG1 130033Z 04021KT 11/M04 A3012 RMK A01 T01061044  RH  034%=      5-min Rain = 0
KPG1 130034Z 04020KT 11/M04 A3012 RMK A01 T01061044  RH  035%=      5-min Rain = 0
KPG1 130035Z 04024KT 11/M04 A3012 RMK A01 T01051044  RH  035%=      5-min Rain = 0
KPG1 130036Z 04022KT 11/M04 A3012 RMK A01 T01051044  RH  035%=      5-min Rain = 0
KPG1 130037Z 04023KT 11/M04 A3012 RMK A01 T01051044  RH  035%=      5-min Rain = 0
KPG1 130038Z 04020KT 10/M04 A3012 RMK A01 T01041044  RH  035%=      5-min Rain = 0
KPG1 130039Z 04023KT 10/M04 A3012 RMK A01 T01041044  RH  035%=      5-min Rain = 0
KPG1 130040Z 04021KT 10/M04 A3012 RMK A01 T01041043  RH  035%=      5-min Rain = 0
KPG1 130041Z 04022KT 10/M04 A3012 RMK A01 T01041043  RH  035%=      5-min Rain = 0
KPG1 130042Z 03020G25KT 10/M04 A3012 RMK A01 T01041044  RH  035%=      5-min Rain = 0
KPG1 130043Z 04022KT 10/M04 A3012 RMK A01 T01041043  RH  035%=      5-min Rain = 0
KPG1 130044Z 03019KT 10/M04 A3012 RMK A01 T01031043  RH  035%=      5-min Rain = 0
KPG1 130045Z 04022KT 10/M04 A3012 RMK A01 T01031043  RH  035%=      5-min Rain = 0
KPG1 130046Z 04019KT 10/M04 A3012 RMK A01 T01031043  RH  035%=      5-min Rain = 0
KPG1 130047Z 03020KT 10/M04 A3012 RMK A01 T01031044  RH  035%=      5-min Rain = 0
KPG1 130048Z 04018KT 10/M04 A3012 RMK A01 T01021044  RH  036%=      5-min Rain = 0
KPG1 130049Z 04022KT 10/M04 A3012 RMK A01 T01021043  RH  036%=      5-min Rain = 0
KPG1 130050Z 04019KT 10/M04 A3012 RMK A01 T01021043  RH  036%=      5-min Rain = 0
KPG1 130051Z 04021KT 10/M04 A3012 RMK A01 T01021043  RH  036%=      5-min Rain = 0
KPG1 130052Z 04019KT 10/M04 A3012 RMK A01 T01011043  RH  036%=      5-min Rain = 0
KPG1 130053Z 04020KT 10/M04 A3012 RMK A01 T01011043  RH  036%=      5-min Rain = 0
KPG1 130054Z 03018KT 10/M04 A3013 RMK A01 T01011043  RH  036%=      5-min Rain = 0
KPG1 130055Z 04018KT 10/M04 A3012 RMK A01 T01011043  RH  036%=      5-min Rain = 0
KPG1 130056Z 03020KT 10/M04 A3012 RMK A01 T01001043  RH  036%=      5-min Rain = 0
KPG1 130057Z 03020KT 10/M04 A3012 RMK A01 T01001043  RH  036%=      5-min Rain = 0
KPG1 130058Z 04019KT 10/M04 A3013 RMK A01 T01001043  RH  036%=      5-min Rain = 0
KPG1 130059Z 04018KT 10/M04 A3013 RMK A01 T01001043  RH  036%=      5-min Rain = 0
KPG1 130100Z 03019KT 10/M04 A3013 RMK A01 T01001043  RH  036%=      5-min Rain = 0
KPG1 130101Z 03019KT 10/M04 A3013 RMK A01 T00991043  RH  036%=      5-min Rain = 0
KPG1 130102Z 03017KT 10/M04 A3013 RMK A01 T00991043  RH  036%=      5-min Rain = 0
KPG1 130103Z 04018KT 10/M04 A3013 RMK A01 T00991043  RH  036%=      5-min Rain = 0
KPG1 130104Z 03019KT 10/M04 A3013 RMK A01 T00991043  RH  037%=      5-min Rain = 0
KPG1 130105Z 03020KT 10/M04 A3013 RMK A01 T00981043  RH  037%=      5-min Rain = 0
KPG1 130106Z 03019G24KT 10/M04 A3013 RMK A01 T00981043  RH  037%=      5-min Rain = 0
KPG1 130107Z 03015KT 10/M04 A3013 RMK A01 T00981043  RH  037%=      5-min Rain = 0
KPG1 130108Z 03016KT 10/M04 A3013 RMK A01 T00971043  RH  037%=      5-min Rain = 0
KPG1 130109Z 04017KT 10/M04 A3013 RMK A01 T00971043  RH  037%=      5-min Rain = 0
KPG1 130110Z 03016KT 10/M04 A3013 RMK A01 T00971043  RH  037%=      5-min Rain = 0
KPG1 130111Z 03015KT 10/M04 A3013 RMK A01 T00971043  RH  037%=      5-min Rain = 0
KPG1 130112Z 03015KT 10/M04 A3013 RMK A01 T00961043  RH  037%=      5-min Rain = 0
KPG1 130113Z 03017KT 10/M04 A3013 RMK A01 T00961043  RH  037%=      5-min Rain = 0
KPG1 130114Z 03016KT 10/M04 A3013 RMK A01 T00961043  RH  037%=      5-min Rain = 0
KPG1 130115Z 03016KT 10/M04 A3013 RMK A01 T00951043  RH  037%=      5-min Rain = 0
KPG1 130116Z 03015KT 10/M04 A3013 RMK A01 T00951043  RH  038%=      5-min Rain = 0
KPG1 130117Z 03016KT 10/M04 A3013 RMK A01 T00951043  RH  038%=      5-min Rain = 0
KPG1 130118Z 02018KT 10/M04 A3013 RMK A01 T00951043  RH  038%=      5-min Rain = 0
KPG1 130119Z 02018KT 10/M04 A3013 RMK A01 T00951042  RH  038%=      5-min Rain = 0
KPG1 130120Z 02018KT 09/M04 A3013 RMK A01 T00941043  RH  038%=      5-min Rain = 0
KPG1 130121Z 02018KT 09/M04 A3013 RMK A01 T00941042  RH  038%=      5-min Rain = 0
KPG1 130122Z 02020KT 10/M04 A3013 RMK A01 T00951042  RH  038%=      5-min Rain = 0
KPG1 130123Z 02021KT 10/M04 A3013 RMK A01 T00951042  RH  038%=      5-min Rain = 0
KPG1 130124Z 02019KT 10/M04 A3013 RMK A01 T00951041  RH  038%=      5-min Rain = 0
KPG1 130125Z 02020KT 09/M04 A3013 RMK A01 T00941042  RH  038%=      5-min Rain = 0
KPG1 130126Z 02018KT 10/M04 A3014 RMK A01 T00951041  RH  038%=      5-min Rain = 0
KPG1 130127Z 03017KT 09/M04 A3014 RMK A01 T00941041  RH  038%=      5-min Rain = 0
KPG1 130128Z 03015KT 09/M04 A3014 RMK A01 T00941041  RH  038%=      5-min Rain = 0
KPG1 130129Z 03016KT 09/M04 A3014 RMK A01 T00931041  RH  038%=      5-min Rain = 0
KPG1 130130Z 03015KT 09/M04 A3014 RMK A01 T00931041  RH  038%=      5-min Rain = 0
KPG1 130131Z 03016KT 09/M04 A3014 RMK A01 T00931041  RH  039%=      5-min Rain = 0
KPG1 130132Z 02018KT 09/M04 A3014 RMK A01 T00931041  RH  039%=      5-min Rain = 0
KPG1 130133Z 03017KT 09/M04 A3014 RMK A01 T00931041  RH  039%=      5-min Rain = 0
KPG1 130134Z 03018KT 09/M04 A3014 RMK A01 T00931041  RH  039%=      5-min Rain = 0
KPG1 130135Z 03017KT 09/M04 A3014 RMK A01 T00931041  RH  039%=      5-min Rain = 0
KPG1 130136Z 03016KT 09/M04 A3014 RMK A01 T00931041  RH  039%=      5-min Rain = 0
KPG1 130137Z 02018KT 09/M04 A3014 RMK A01 T00921041  RH  039%=      5-min Rain = 0
KPG1 130138Z 03019KT 09/M04 A3014 RMK A01 T00921041  RH  039%=      5-min Rain = 0
KPG1 130139Z 02019KT 09/M04 A3014 RMK A01 T00921040  RH  039%=      5-min Rain = 0
KPG1 130140Z 03019KT 09/M04 A3014 RMK A01 T00921040  RH  039%=      5-min Rain = 0
KPG1 130141Z 03018KT 09/M04 A3014 RMK A01 T00921040  RH  039%=      5-min Rain = 0
KPG1 130142Z 02020KT 09/M04 A3014 RMK A01 T00921040  RH  039%=      5-min Rain = 0
KPG1 130143Z 03019KT 09/M04 A3014 RMK A01 T00921040  RH  039%=      5-min Rain = 0
KPG1 130144Z 02020KT 09/M04 A3014 RMK A01 T00921040  RH  039%=      5-min Rain = 0
KPG1 130145Z 02019KT 09/M04 A3014 RMK A01 T00921040  RH  039%=      5-min Rain = 0
KPG1 130146Z 02020KT 09/M04 A3014 RMK A01 T00921040  RH  039%=      5-min Rain = 0
KPG1 130147Z 03018KT 09/M04 A3014 RMK A01 T00921040  RH  039%=      5-min Rain = 0
KPG1 130148Z 03019KT 09/M04 A3014 RMK A01 T00921040  RH  039%=      5-min Rain = 0
KPG1 130149Z 02019KT 09/M04 A3014 RMK A01 T00911040  RH  039%=      5-min Rain = 0
KPG1 130150Z 02020KT 09/M04 A3014 RMK A01 T00921040  RH  039%=      5-min Rain = 0
KPG1 130151Z 02018KT 09/M04 A3014 RMK A01 T00911040  RH  039%=      5-min Rain = 0
KPG1 130152Z 02020KT 09/M04 A3014 RMK A01 T00911040  RH  039%=      5-min Rain = 0
KPG1 130153Z 03021KT 09/M04 A3014 RMK A01 T00911040  RH  039%=      5-min Rain = 0
KPG1 130154Z 02021KT 09/M04 A3014 RMK A01 T00921039  RH  039%=      5-min Rain = 0
KPG1 130155Z 02020KT 09/M04 A3014 RMK A01 T00911039  RH  039%=      5-min Rain = 0
KPG1 130156Z 02018KT 09/M04 A3014 RMK A01 T00911040  RH  039%=      5-min Rain = 0
KPG1 130157Z 02018KT 09/M04 A3014 RMK A01 T00911039  RH  040%=      5-min Rain = 0
KPG1 130158Z 02019KT 09/M04 A3014 RMK A01 T00901039  RH  040%=      5-min Rain = 0
KPG1 130159Z 02020KT 09/M04 A3014 RMK A01 T00901039  RH  040%=      5-min Rain = 0
KPG1 130200Z 02020KT 09/M04 A3015 RMK A01 T00901039  RH  040%=      5-min Rain = 0
KPG1 130201Z 02018KT 09/M04 A3015 RMK A01 T00901039  RH  040%=      5-min Rain = 0
KPG1 130202Z 02020KT 09/M04 A3015 RMK A01 T00901039  RH  040%=      5-min Rain = 0
KPG1 130203Z 02018KT 09/M04 A3015 RMK A01 T00901039  RH  040%=      5-min Rain = 0
KPG1 130204Z 02020KT 09/M04 A3015 RMK A01 T00901039  RH  040%=      5-min Rain = 0
KPG1 130205Z 02019KT 09/M04 A3015 RMK A01 T00891039  RH  040%=      5-min Rain = 0
KPG1 130206Z 02018KT 09/M04 A3015 RMK A01 T00891039  RH  040%=      5-min Rain = 0
KPG1 130207Z 02019KT 09/M04 A3015 RMK A01 T00891039  RH  040%=      5-min Rain = 0
KPG1 130208Z 02018KT 09/M04 A3015 RMK A01 T00891039  RH  040%=      5-min Rain = 0
KPG1 130209Z 02018KT 09/M04 A3015 RMK A01 T00891039  RH  040%=      5-min Rain = 0
KPG1 130210Z 02020KT 09/M04 A3015 RMK A01 T00891039  RH  040%=      5-min Rain = 0
KPG1 130211Z 02016G22KT 09/M04 A3015 RMK A01 T00891038  RH  040%=      5-min Rain = 0
KPG1 130212Z 02017KT 09/M04 A3015 RMK A01 T00891039  RH  040%=      5-min Rain = 0
KPG1 130213Z 03019KT 09/M04 A3015 RMK A01 T00881039  RH  041%=      5-min Rain = 0
KPG1 130214Z 02016KT 09/M04 A3016 RMK A01 T00881038  RH  041%=      5-min Rain = 0
KPG1 130215Z 02016KT 09/M04 A3016 RMK A01 T00871039  RH  041%=      5-min Rain = 0
KPG1 130216Z 02018KT 09/M04 A3016 RMK A01 T00871039  RH  041%=      5-min Rain = 0
KPG1 130217Z 02020KT 09/M04 A3016 RMK A01 T00881038  RH  041%=      5-min Rain = 0
KPG1 130218Z 02019KT 09/M04 A3016 RMK A01 T00871039  RH  041%=      5-min Rain = 0
KPG1 130219Z 01017G22KT 09/M04 A3016 RMK A01 T00871039  RH  041%=      5-min Rain = 0
KPG1 130220Z 02020KT 09/M04 A3016 RMK A01 T00871038  RH  041%=      5-min Rain = 0
KPG1 130221Z 02016KT 09/M04 A3016 RMK A01 T00871038  RH  041%=      5-min Rain = 0
KPG1 130222Z 02017KT 09/M04 A3016 RMK A01 T00871039  RH  041%=      5-min Rain = 0
KPG1 130223Z 02018KT 09/M04 A3016 RMK A01 T00871039  RH  041%=      5-min Rain = 0
KPG1 130224Z 02019KT 09/M04 A3016 RMK A01 T00871039  RH  041%=      5-min Rain = 0
KPG1 130225Z 02019KT 09/M04 A3016 RMK A01 T00871039  RH  041%=      5-min Rain = 0
KPG1 130226Z 02017KT 09/M04 A3016 RMK A01 T00861039  RH  041%=      5-min Rain = 0
KPG1 130227Z 02019KT 09/M04 A3016 RMK A01 T00861038  RH  041%=      5-min Rain = 0
KPG1 130228Z 02018KT 09/M04 A3016 RMK A01 T00861038  RH  041%=      5-min Rain = 0
KPG1 130229Z 02016KT 09/M04 A3016 RMK A01 T00861038  RH  041%=      5-min Rain = 0
KPG1 130230Z 02017KT 09/M04 A3016 RMK A01 T00851038  RH  041%=      5-min Rain = 0
KPG1 130231Z 02018KT 09/M04 A3016 RMK A01 T00851039  RH  042%=      5-min Rain = 0
KPG1 130232Z 02017KT 08/M04 A3016 RMK A01 T00841039  RH  042%=      5-min Rain = 0
KPG1 130233Z 02018KT 08/M04 A3016 RMK A01 T00841039  RH  042%=      5-min Rain = 0
KPG1 130234Z 02020KT 08/M04 A3016 RMK A01 T00841038  RH  042%=      5-min Rain = 0
KPG1 130235Z 02019KT 08/M04 A3016 RMK A01 T00841038  RH  042%=      5-min Rain = 0
KPG1 130236Z 03018KT 08/M04 A3016 RMK A01 T00841038  RH  042%=      5-min Rain = 0
KPG1 130237Z 02019KT 08/M04 A3016 RMK A01 T00841038  RH  042%=      5-min Rain = 0
KPG1 130238Z 02020KT 08/M04 A3016 RMK A01 T00841037  RH  042%=      5-min Rain = 0
KPG1 130239Z 02019G24KT 08/M04 A3016 RMK A01 T00841037  RH  042%=      5-min Rain = 0
KPG1 130240Z 02018KT 09/M04 A3016 RMK A01 T00851037  RH  042%=      5-min Rain = 0
KPG1 130241Z 02017KT 08/M04 A3016 RMK A01 T00841038  RH  042%=      5-min Rain = 0
KPG1 130242Z 02018KT 08/M04 A3017 RMK A01 T00841038  RH  042%=      5-min Rain = 0
KPG1 130243Z 02019KT 08/M04 A3017 RMK A01 T00841038  RH  042%=      5-min Rain = 0
KPG1 130244Z 02018KT 08/M04 A3017 RMK A01 T00831038  RH  042%=      5-min Rain = 0
KPG1 130245Z 02017KT 08/M04 A3017 RMK A01 T00831038  RH  042%=      5-min Rain = 0
KPG1 130246Z 02020KT 08/M04 A3017 RMK A01 T00831038  RH  042%=      5-min Rain = 0
KPG1 130247Z 02022KT 08/M04 A3017 RMK A01 T00841037  RH  042%=      5-min Rain = 0
KPG1 130248Z 02020KT 08/M04 A3017 RMK A01 T00841037  RH  042%=      5-min Rain = 0
KPG1 130249Z 02017G23KT 08/M04 A3017 RMK A01 T00841037  RH  042%=      5-min Rain = 0
KPG1 130250Z 02019KT 08/M04 A3017 RMK A01 T00841037  RH  042%=      5-min Rain = 0
KPG1 130251Z 02018G23KT 08/M04 A3017 RMK A01 T00841037  RH  042%=      5-min Rain = 0
KPG1 130252Z 02019KT 08/M04 A3017 RMK A01 T00841037  RH  042%=      5-min Rain = 0
KPG1 130253Z 02017KT 08/M04 A3017 RMK A01 T00841037  RH  042%=      5-min Rain = 0
KPG1 130254Z 02019KT 08/M04 A3017 RMK A01 T00831037  RH  042%=      5-min Rain = 0
KPG1 130255Z 02018KT 08/M04 A3017 RMK A01 T00831037  RH  042%=      5-min Rain = 0
KPG1 130256Z 02017KT 08/M04 A3017 RMK A01 T00831037  RH  042%=      5-min Rain = 0
KPG1 130257Z 02017KT 08/M04 A3017 RMK A01 T00831038  RH  042%=      5-min Rain = 0
KPG1 130258Z 02019KT 08/M04 A3017 RMK A01 T00831038  RH  042%=      5-min Rain = 0
KPG1 130259Z 02019KT 08/M04 A3017 RMK A01 T00821038  RH  042%=      5-min Rain = 0
KPG1 130300Z 02019KT 08/M04 A3018 RMK A01 T00831037  RH  042%=      5-min Rain = 0
KPG1 130301Z 02017KT 08/M04 A3017 RMK A01 T00831037  RH  042%=      5-min Rain = 0
KPG1 130302Z 02019KT 08/M04 A3017 RMK A01 T00831037  RH  042%=      5-min Rain = 0
KPG1 130303Z 02020KT 08/M04 A3017 RMK A01 T00831038  RH  042%=      5-min Rain = 0
KPG1 130304Z 02020KT 08/M04 A3017 RMK A01 T00831037  RH  042%=      5-min Rain = 0
KPG1 130305Z 02019KT 08/M04 A3017 RMK A01 T00831037  RH  042%=      5-min Rain = 0
KPG1 130306Z 01019KT 08/M04 A3017 RMK A01 T00831037  RH  042%=      5-min Rain = 0
KPG1 130307Z 02018KT 08/M04 A3017 RMK A01 T00831037  RH  042%=      5-min Rain = 0
KPG1 130308Z 02022KT 08/M04 A3017 RMK A01 T00831037  RH  043%=      5-min Rain = 0
KPG1 130309Z 02021KT 08/M04 A3017 RMK A01 T00831037  RH  042%=      5-min Rain = 0
KPG1 130310Z 02021KT 08/M04 A3017 RMK A01 T00831038  RH  042%=      5-min Rain = 0
KPG1 130311Z 02021G26KT 08/M04 A3017 RMK A01 T00831038  RH  042%=      5-min Rain = 0
KPG1 130312Z 02018KT 08/M04 A3017 RMK A01 T00821038  RH  042%=      5-min Rain = 0
KPG1 130313Z 02019G24KT 08/M04 A3017 RMK A01 T00831037  RH  043%=      5-min Rain = 0
KPG1 130314Z 02021KT 08/M04 A3018 RMK A01 T00821037  RH  043%=      5-min Rain = 0
KPG1 130315Z 01021KT 08/M04 A3018 RMK A01 T00821037  RH  043%=      5-min Rain = 0
KPG1 130316Z 02021G27KT 08/M04 A3018 RMK A01 T00821037  RH  043%=      5-min Rain = 0
KPG1 130317Z 02020KT 08/M04 A3018 RMK A01 T00821038  RH  043%=      5-min Rain = 0
KPG1 130318Z 02019KT 08/M04 A3018 RMK A01 T00811038  RH  043%=      5-min Rain = 0
KPG1 130319Z 02020KT 08/M04 A3018 RMK A01 T00811038  RH  043%=      5-min Rain = 0
KPG1 130320Z 02019KT 08/M04 A3018 RMK A01 T00811038  RH  043%=      5-min Rain = 0
KPG1 130321Z 01021KT 08/M04 A3018 RMK A01 T00811038  RH  043%=      5-min Rain = 0
KPG1 130322Z 02020KT 08/M04 A3018 RMK A01 T00811038  RH  043%=      5-min Rain = 0
KPG1 130323Z 02020KT 08/M04 A3018 RMK A01 T00811038  RH  043%=      5-min Rain = 0
KPG1 130324Z 02019KT 08/M04 A3018 RMK A01 T00811039  RH  043%=      5-min Rain = 0
KPG1 130325Z 02020KT 08/M04 A3018 RMK A01 T00801039  RH  043%=      5-min Rain = 0
KPG1 130326Z 02021KT 08/M04 A3018 RMK A01 T00801039  RH  043%=      5-min Rain = 0
KPG1 130327Z 02021KT 08/M04 A3018 RMK A01 T00801039  RH  043%=      5-min Rain = 0
KPG1 130328Z 02018KT 08/M04 A3018 RMK A01 T00801039  RH  043%=      5-min Rain = 0
KPG1 130329Z 02018G23KT 08/M04 A3018 RMK A01 T00791039  RH  043%=      5-min Rain = 0
KPG1 130330Z 02020KT 08/M04 A3018 RMK A01 T00791039  RH  043%=      5-min Rain = 0
KPG1 130331Z 02019KT 08/M04 A3018 RMK A01 T00781039  RH  043%=      5-min Rain = 0
KPG1 130332Z 02020KT 08/M04 A3018 RMK A01 T00781039  RH  043%=      5-min Rain = 0
KPG1 130333Z 02018KT 08/M04 A3018 RMK A01 T00781039  RH  043%=      5-min Rain = 0
KPG1 130334Z 02019KT 08/M04 A3018 RMK A01 T00781039  RH  043%=      5-min Rain = 0
KPG1 130335Z 03017KT 08/M04 A3018 RMK A01 T00771039  RH  043%=      5-min Rain = 0
KPG1 130336Z 02018KT 08/M04 A3018 RMK A01 T00771039  RH  044%=      5-min Rain = 0
KPG1 130337Z 02017KT 08/M04 A3018 RMK A01 T00771039  RH  044%=      5-min Rain = 0
KPG1 130338Z 02021KT 08/M04 A3018 RMK A01 T00771039  RH  044%=      5-min Rain = 0
KPG1 130339Z 03022KT 08/M04 A3018 RMK A01 T00771039  RH  044%=      5-min Rain = 0
KPG1 130340Z 02021KT 08/M04 A3018 RMK A01 T00771039  RH  044%=      5-min Rain = 0
KPG1 130341Z 03020KT 08/M04 A3018 RMK A01 T00771039  RH  044%=      5-min Rain = 0
KPG1 130342Z 03017KT 08/M04 A3019 RMK A01 T00771039  RH  044%=      5-min Rain = 0
KPG1 130343Z 02018KT 08/M04 A3018 RMK A01 T00771039  RH  044%=      5-min Rain = 0
KPG1 130344Z 02019KT 08/M04 A3019 RMK A01 T00771039  RH  044%=      5-min Rain = 0
KPG1 130345Z 02019KT 08/M04 A3018 RMK A01 T00761039  RH  044%=      5-min Rain = 0
KPG1 130346Z 02020KT 08/M04 A3018 RMK A01 T00761039  RH  044%=      5-min Rain = 0
KPG1 130347Z 02018KT 08/M04 A3019 RMK A01 T00761039  RH  044%=      5-min Rain = 0
KPG1 130348Z 02020KT 08/M04 A3019 RMK A01 T00751040  RH  044%=      5-min Rain = 0
KPG1 130349Z 02019KT 08/M04 A3019 RMK A01 T00751039  RH  044%=      5-min Rain = 0
KPG1 130350Z 02019KT 08/M04 A3019 RMK A01 T00751040  RH  044%=      5-min Rain = 0
KPG1 130351Z 02021KT 07/M04 A3019 RMK A01 T00741040  RH  044%=      5-min Rain = 0
KPG1 130352Z 03021KT 07/M04 A3019 RMK A01 T00741039  RH  044%=      5-min Rain = 0
KPG1 130353Z 03019KT 07/M04 A3019 RMK A01 T00741039  RH  044%=      5-min Rain = 0
KPG1 130354Z 03020KT 07/M04 A3019 RMK A01 T00741039  RH  044%=      5-min Rain = 0
KPG1 130355Z 03019KT 07/M04 A3019 RMK A01 T00741039  RH  044%=      5-min Rain = 0
KPG1 130356Z 03020KT 07/M04 A3019 RMK A01 T00741039  RH  044%=      5-min Rain = 0
KPG1 130357Z 03020KT 07/M04 A3019 RMK A01 T00741039  RH  044%=      5-min Rain = 0
KPG1 130358Z 03021KT 07/M04 A3019 RMK A01 T00741039  RH  044%=      5-min Rain = 0
KPG1 130359Z 02020KT 07/M04 A3019 RMK A01 T00731040  RH  044%=      5-min Rain = 0
KPG1 130400Z 02021KT 07/M04 A3019 RMK A01 T00731039  RH  045%=      5-min Rain = 0
KPG1 130401Z 03017KT 07/M04 A3019 RMK A01 T00731039  RH  045%=      5-min Rain = 0
KPG1 130402Z 03016KT 07/M04 A3019 RMK A01 T00731040  RH  045%=      5-min Rain = 0
KPG1 130403Z 03020KT 07/M04 A3019 RMK A01 T00721040  RH  045%=      5-min Rain = 0
KPG1 130404Z 03022KT 07/M04 A3019 RMK A01 T00721039  RH  045%=      5-min Rain = 0
KPG1 130405Z 02021KT 07/M04 A3019 RMK A01 T00721039  RH  045%=      5-min Rain = 0
KPG1 130406Z 03021KT 07/M04 A3019 RMK A01 T00731039  RH  045%=      5-min Rain = 0
KPG1 130407Z 03021KT 07/M04 A3019 RMK A01 T00731039  RH  045%=      5-min Rain = 0
KPG1 130408Z 03020KT 07/M04 A3019 RMK A01 T00721039  RH  045%=      5-min Rain = 0
KPG1 130409Z 03020KT 07/M04 A3019 RMK A01 T00721039  RH  045%=      5-min Rain = 0
KPG1 130410Z 03021KT 07/M04 A3019 RMK A01 T00721039  RH  045%=      5-min Rain = 0
KPG1 130411Z 03019KT 07/M04 A3019 RMK A01 T00721039  RH  045%=      5-min Rain = 0
KPG1 130412Z 03019KT 07/M04 A3019 RMK A01 T00721039  RH  045%=      5-min Rain = 0
KPG1 130413Z 03020KT 07/M04 A3019 RMK A01 T00721039  RH  045%=      5-min Rain = 0
KPG1 130414Z 03020KT 07/M04 A3019 RMK A01 T00721039  RH  045%=      5-min Rain = 0
KPG1 130415Z 03020KT 07/M04 A3019 RMK A01 T00721039  RH  045%=      5-min Rain = 0
KPG1 130416Z 03020KT 07/M04 A3019 RMK A01 T00711039  RH  045%=      5-min Rain = 0
KPG1 130417Z 03020KT 07/M04 A3019 RMK A01 T00711039  RH  045%=      5-min Rain = 0
KPG1 130418Z 03021KT 07/M04 A3019 RMK A01 T00711039  RH  046%=      5-min Rain = 0
KPG1 130419Z 03020KT 07/M04 A3019 RMK A01 T00711039  RH  046%=      5-min Rain = 0
KPG1 130420Z 03019KT 07/M04 A3019 RMK A01 T00711039  RH  046%=      5-min Rain = 0
KPG1 130421Z 03018KT 07/M04 A3019 RMK A01 T00701039  RH  046%=      5-min Rain = 0
KPG1 130422Z 03017KT 07/M04 A3019 RMK A01 T00701039  RH  046%=      5-min Rain = 0
KPG1 130423Z 03018KT 07/M04 A3019 RMK A01 T00701039  RH  046%=      5-min Rain = 0
KPG1 130424Z 03018KT 07/M04 A3019 RMK A01 T00701039  RH  046%=      5-min Rain = 0
KPG1 130425Z 03018KT 07/M04 A3019 RMK A01 T00691039  RH  046%=      5-min Rain = 0
KPG1 130426Z 03020KT 07/M04 A3019 RMK A01 T00691039  RH  046%=      5-min Rain = 0
KPG1 130427Z 04020KT 07/M04 A3019 RMK A01 T00691038  RH  046%=      5-min Rain = 0
KPG1 130428Z 03020KT 07/M04 A3019 RMK A01 T00691039  RH  046%=      5-min Rain = 0
KPG1 130429Z 03020KT 07/M04 A3019 RMK A01 T00691038  RH  046%=      5-min Rain = 0
KPG1 130430Z 03018KT 07/M04 A3019 RMK A01 T00691039  RH  046%=      5-min Rain = 0
KPG1 130431Z 03019KT 07/M04 A3019 RMK A01 T00691039  RH  046%=      5-min Rain = 0
KPG1 130432Z 03019G24KT 07/M04 A3019 RMK A01 T00681039  RH  046%=      5-min Rain = 0
KPG1 130433Z 03022KT 07/M04 A3019 RMK A01 T00691038  RH  047%=      5-min Rain = 0
KPG1 130434Z 03021KT 07/M04 A3019 RMK A01 T00681038  RH  047%=      5-min Rain = 0
KPG1 130435Z 03021KT 07/M04 A3019 RMK A01 T00681038  RH  047%=      5-min Rain = 0
KPG1 130436Z 03019G24KT 07/M04 A3019 RMK A01 T00681039  RH  047%=      5-min Rain = 0
KPG1 130437Z 02020KT 07/M04 A3019 RMK A01 T00681039  RH  047%=      5-min Rain = 0
KPG1 130438Z 03020KT 07/M04 A3019 RMK A01 T00681038  RH  047%=      5-min Rain = 0
KPG1 130439Z 02022KT 07/M04 A3019 RMK A01 T00671038  RH  047%=      5-min Rain = 0
KPG1 130440Z 02020KT 07/M04 A3019 RMK A01 T00671038  RH  047%=      5-min Rain = 0
KPG1 130441Z 03020KT 07/M04 A3019 RMK A01 T00671038  RH  047%=      5-min Rain = 0
KPG1 130442Z 03018KT 07/M04 A3019 RMK A01 T00671038  RH  047%=      5-min Rain = 0
KPG1 130443Z 03018KT 07/M04 A3019 RMK A01 T00661038  RH  047%=      5-min Rain = 0
KPG1 130444Z 03017KT 07/M04 A3019 RMK A01 T00661039  RH  047%=      5-min Rain = 0
KPG1 130445Z 03017KT 07/M04 A3019 RMK A01 T00651039  RH  047%=      5-min Rain = 0
KPG1 130446Z 02020KT 06/M04 A3019 RMK A01 T00641039  RH  047%=      5-min Rain = 0
KPG1 130447Z 02018KT 06/M04 A3019 RMK A01 T00641039  RH  048%=      5-min Rain = 0
KPG1 130448Z 02021KT 06/M04 A3019 RMK A01 T00641039  RH  048%=      5-min Rain = 0
KPG1 130449Z 02022KT 07/M04 A3019 RMK A01 T00651039  RH  048%=      5-min Rain = 0
KPG1 130450Z 02021KT 07/M04 A3019 RMK A01 T00651038  RH  048%=      5-min Rain = 0
KPG1 130451Z 02019KT 07/M04 A3019 RMK A01 T00651039  RH  048%=      5-min Rain = 0
KPG1 130452Z 02016KT 07/M04 A3019 RMK A01 T00651039  RH  048%=      5-min Rain = 0
KPG1 130453Z 02017KT 07/M04 A3019 RMK A01 T00651039  RH  048%=      5-min Rain = 0
KPG1 130454Z 03018KT 06/M04 A3019 RMK A01 T00641039  RH  048%=      5-min Rain = 0
KPG1 130455Z 03018KT 06/M04 A302 RMK A01 T00641039  RH  048%=      5-min Rain = 0
KPG1 130456Z 03018KT 06/M04 A302 RMK A01 T00631039  RH  048%=      5-min Rain = 0
KPG1 130457Z 02019KT 06/M04 A302 RMK A01 T00631039  RH  048%=      5-min Rain = 0
KPG1 130458Z 03019KT 06/M04 A302 RMK A01 T00631039  RH  048%=      5-min Rain = 0
KPG1 130459Z 03017KT 06/M04 A302 RMK A01 T00631039  RH  048%=      5-min Rain = 0
KPG1 130500Z 03018KT 06/M04 A302 RMK A01 T00631039  RH  048%=      5-min Rain = 0
KPG1 130501Z 03017KT 06/M04 A302 RMK A01 T00621039  RH  048%=      5-min Rain = 0
KPG1 130502Z 03016KT 06/M04 A302 RMK A01 T00621039  RH  048%=      5-min Rain = 0
KPG1 130503Z 02018KT 06/M04 A3019 RMK A01 T00621039  RH  048%=      5-min Rain = 0
KPG1 130504Z 03019KT 06/M04 A3019 RMK A01 T00621039  RH  049%=      5-min Rain = 0
KPG1 130505Z 02018KT 06/M04 A3019 RMK A01 T00621039  RH  049%=      5-min Rain = 0
KPG1 130506Z 03017KT 06/M04 A3019 RMK A01 T00621039  RH  049%=      5-min Rain = 0
KPG1 130507Z 02018KT 06/M04 A3019 RMK A01 T00621039  RH  049%=      5-min Rain = 0
KPG1 130508Z 03019KT 06/M04 A3019 RMK A01 T00621038  RH  049%=      5-min Rain = 0
KPG1 130509Z 03020KT 06/M04 A3019 RMK A01 T00611038  RH  049%=      5-min Rain = 0
KPG1 130510Z 03019KT 06/M04 A3019 RMK A01 T00621038  RH  049%=      5-min Rain = 0
KPG1 130511Z 03017KT 06/M04 A3019 RMK A01 T00611038  RH  049%=      5-min Rain = 0
KPG1 130512Z 02018KT 06/M04 A3019 RMK A01 T00611039  RH  049%=      5-min Rain = 0
KPG1 130513Z 02019KT 06/M04 A3019 RMK A01 T00601039  RH  049%=      5-min Rain = 0
KPG1 130514Z 02020KT 06/M04 A3019 RMK A01 T00601039  RH  049%=      5-min Rain = 0
KPG1 130515Z 02017KT 06/M04 A3019 RMK A01 T00611038  RH  049%=      5-min Rain = 0
KPG1 130516Z 01020KT 06/M04 A3019 RMK A01 T00611039  RH  049%=      5-min Rain = 0
KPG1 130517Z 02021KT 06/M04 A3019 RMK A01 T00611038  RH  049%=      5-min Rain = 0
KPG1 130518Z 02019KT 06/M04 A3019 RMK A01 T00611038  RH  049%=      5-min Rain = 0
KPG1 130519Z 02019KT 06/M04 A3019 RMK A01 T00621038  RH  049%=      5-min Rain = 0
KPG1 130520Z 02020KT 06/M04 A3019 RMK A01 T00621038  RH  049%=      5-min Rain = 0
KPG1 130521Z 02020KT 06/M04 A3019 RMK A01 T00621038  RH  049%=      5-min Rain = 0
KPG1 130522Z 02021KT 06/M04 A3019 RMK A01 T00611038  RH  049%=      5-min Rain = 0
KPG1 130523Z 02020KT 06/M04 A3019 RMK A01 T00611038  RH  049%=      5-min Rain = 0
KPG1 130524Z 02021KT 06/M04 A3019 RMK A01 T00611038  RH  049%=      5-min Rain = 0
KPG1 130525Z 02019KT 06/M04 A3019 RMK A01 T00611038  RH  049%=      5-min Rain = 0
KPG1 130526Z 02021KT 06/M04 A3019 RMK A01 T00611038  RH  049%=      5-min Rain = 0
KPG1 130527Z 02020KT 06/M04 A3019 RMK A01 T00611038  RH  049%=      5-min Rain = 0
KPG1 130528Z 02021KT 06/M04 A3019 RMK A01 T00601038  RH  049%=      5-min Rain = 0
KPG1 130529Z 02019KT 06/M04 A3019 RMK A01 T00601038  RH  049%=      5-min Rain = 0
KPG1 130530Z 02018KT 06/M04 A3019 RMK A01 T00591038  RH  049%=      5-min Rain = 0
KPG1 130531Z 02018KT 06/M04 A3019 RMK A01 T00591039  RH  050%=      5-min Rain = 0
KPG1 130532Z 02018KT 06/M04 A3019 RMK A01 T00581039  RH  050%=      5-min Rain = 0
KPG1 130533Z 02018KT 06/M04 A3019 RMK A01 T00581039  RH  050%=      5-min Rain = 0
KPG1 130534Z 02016KT 06/M04 A3019 RMK A01 T00571039  RH  050%=      5-min Rain = 0
KPG1 130535Z 02017KT 06/M04 A3019 RMK A01 T00571039  RH  050%=      5-min Rain = 0
KPG1 130536Z 02018KT 06/M04 A3019 RMK A01 T00571038  RH  050%=      5-min Rain = 0
KPG1 130537Z 02017KT 06/M04 A3019 RMK A01 T00571039  RH  050%=      5-min Rain = 0
KPG1 130538Z 02019KT 06/M04 A3019 RMK A01 T00571038  RH  050%=      5-min Rain = 0
KPG1 130539Z 02017KT 06/M04 A3019 RMK A01 T00571039  RH  050%=      5-min Rain = 0
KPG1 130540Z 02019KT 06/M04 A3019 RMK A01 T00571038  RH  050%=      5-min Rain = 0
KPG1 130541Z 02018KT 06/M04 A3019 RMK A01 T00571038  RH  050%=      5-min Rain = 0
KPG1 130542Z 02017KT 06/M04 A3019 RMK A01 T00571038  RH  050%=      5-min Rain = 0
KPG1 130543Z 02018KT 06/M04 A3019 RMK A01 T00571038  RH  050%=      5-min Rain = 0
KPG1 130544Z 02017KT 06/M04 A3019 RMK A01 T00571038  RH  050%=      5-min Rain = 0
KPG1 130545Z 02018G23KT 06/M04 A3019 RMK A01 T00571039  RH  050%=      5-min Rain = 0
KPG1 130546Z 02016KT 06/M04 A3019 RMK A01 T00571038  RH  050%=      5-min Rain = 0
KPG1 130547Z 03016KT 06/M04 A3019 RMK A01 T00571038  RH  050%=      5-min Rain = 0
KPG1 130548Z 03018KT 06/M04 A3019 RMK A01 T00561039  RH  050%=      5-min Rain = 0
KPG1 130549Z 03019KT 06/M04 A3019 RMK A01 T00561038  RH  051%=      5-min Rain = 0
KPG1 130550Z 03017KT 06/M04 A3019 RMK A01 T00561038  RH  051%=      5-min Rain = 0
KPG1 130551Z 03016KT 06/M04 A3019 RMK A01 T00561039  RH  051%=      5-min Rain = 0
KPG1 130552Z 03016KT 06/M04 A3019 RMK A01 T00551039  RH  051%=      5-min Rain = 0
KPG1 130553Z 03018KT 06/M04 A3019 RMK A01 T00551039  RH  051%=      5-min Rain = 0
KPG1 130554Z 03017KT 06/M04 A3019 RMK A01 T00551038  RH  051%=      5-min Rain = 0
KPG1 130555Z 03018KT 06/M04 A3019 RMK A01 T00551038  RH  051%=      5-min Rain = 0
KPG1 130556Z 03018KT 06/M04 A3019 RMK A01 T00561038  RH  051%=      5-min Rain = 0
KPG1 130557Z 03017KT 06/M04 A3019 RMK A01 T00551038  RH  051%=      5-min Rain = 0
KPG1 130558Z 03018KT 06/M04 A3019 RMK A01 T00551038  RH  051%=      5-min Rain = 0
KPG1 130559Z 03017KT 06/M04 A3019 RMK A01 T00551038  RH  051%=      5-min Rain = 0

Page generated in 0.1116 seconds.